Wetterdaten: Donnerstag, 12.11.2009
Datum Zeit Temp. Innen Temp. Aussen UV X Diff Temp. Feuchte Inne Feuchte Auss Sonnenschein Luftdruck Regen ab 0,1 Wind Sonnenschein Windben
12.11.2009 00:02 13,3 C 6,1 C 0,0 UV-I 0,0 C 55 % 84 % 0 % 1007,6 hPa 0,0 l/m 0,0 km/h (0 Bft) 0 min 0,0 km/h (0 Bft)
12.11.2009 00:04 13,3 C 6,1 C 0,0 UV-I 0,0 C 55 % 84 % 0 % 1007,6 hPa 0,0 l/m 0,0 km/h (0 Bft) 0 min 0,0 km/h (0 Bft)
12.11.2009 00:06 13,3 C 5,9 C 0,0 UV-I 0,0 C 55 % 84 % 0 % 1007,6 hPa 0,0 l/m 0,5 km/h (0 Bft) 0 min 0,0 km/h (0 Bft)
12.11.2009 00:08 13,3 C 5,9 C 0,0 UV-I 0,0 C 55 % 84 % 0 % 1007,6 hPa 0,0 l/m 0,7 km/h (0 Bft) 0 min 0,0 km/h (0 Bft)
12.11.2009 00:10 13,1 C 5,8 C 0,0 UV-I 0,0 C 55 % 84 % 0 % 1007,6 hPa 0,0 l/m 1,0 km/h (0 Bft) 0 min 5,3 km/h (1 Bft)
12.11.2009 00:12 13,1 C 5,7 C 0,0 UV-I 0,0 C 55 % 84 % 0 % 1007,6 hPa 0,0 l/m 1,0 km/h (0 Bft) 0 min 5,3 km/h (1 Bft)
12.11.2009 00:14 13,1 C 5,7 C 0,0 UV-I 0,0 C 55 % 84 % 0 % 1007,2 hPa 0,0 l/m 0,7 km/h (0 Bft) 0 min 0,0 km/h (0 Bft)
12.11.2009 00:16 13,1 C 5,6 C 0,0 UV-I 0,0 C 55 % 84 % 0 % 1007,2 hPa 0,0 l/m 0,7 km/h (0 Bft) 0 min 3,8 km/h (1 Bft)
12.11.2009 00:18 13,1 C 5,6 C 0,0 UV-I 0,0 C 55 % 84 % 0 % 1007,2 hPa 0,0 l/m 0,7 km/h (0 Bft) 0 min 3,8 km/h (1 Bft)
12.11.2009 00:20 13,1 C 5,5 C 0,0 UV-I 0,0 C 55 % 84 % 0 % 1007,2 hPa 0,0 l/m 1,0 km/h (0 Bft) 0 min 3,4 km/h (1 Bft)
12.11.2009 00:22 13,2 C 5,5 C 0,0 UV-I 0,0 C 55 % 84 % 0 % 1007,2 hPa 0,0 l/m 1,2 km/h (1 Bft) 0 min 3,4 km/h (1 Bft)
12.11.2009 00:24 13,1 C 5,4 C 0,0 UV-I 0,0 C 55 % 85 % 0 % 1007,2 hPa 0,0 l/m 1,2 km/h (1 Bft) 0 min 2,9 km/h (1 Bft)
12.11.2009 00:26 13,1 C 5,5 C 0,0 UV-I 0,0 C 55 % 85 % 0 % 1007,2 hPa 0,0 l/m 1,2 km/h (1 Bft) 0 min 2,9 km/h (1 Bft)
12.11.2009 00:28 13,1 C 5,4 C 0,0 UV-I 0,0 C 55 % 85 % 0 % 1007,2 hPa 0,0 l/m 1,0 km/h (0 Bft) 0 min 0,0 km/h (0 Bft)
12.11.2009 00:30 13,2 C 5,3 C 0,0 UV-I 0,0 C 55 % 85 % 0 % 1007,2 hPa 0,0 l/m 1,0 km/h (0 Bft) 0 min 0,0 km/h (0 Bft)
12.11.2009 00:32 13,2 C 5,3 C 0,0 UV-I 0,0 C 55 % 85 % 0 % 1007,2 hPa 0,0 l/m 1,0 km/h (0 Bft) 0 min 6,0 km/h (2 Bft)
12.11.2009 00:34 13,1 C 5,2 C 0,0 UV-I 0,0 C 55 % 85 % 0 % 1007,0 hPa 0,0 l/m 0,7 km/h (0 Bft) 0 min 0,0 km/h (0 Bft)
12.11.2009 00:36 13,1 C 5,2 C 0,0 UV-I 0,0 C 55 % 85 % 0 % 1007,0 hPa 0,0 l/m 1,2 km/h (1 Bft) 0 min 7,0 km/h (2 Bft)
12.11.2009 00:38 13,2 C 5,1 C 0,0 UV-I 0,0 C 55 % 85 % 0 % 1007,0 hPa 0,0 l/m 1,9 km/h (1 Bft) 0 min 7,0 km/h (2 Bft)
12.11.2009 00:40 13,2 C 5,1 C 0,0 UV-I 0,0 C 55 % 85 % 0 % 1007,0 hPa 0,0 l/m 2,4 km/h (1 Bft) 0 min 3,8 km/h (1 Bft)
12.11.2009 00:42 13,2 C 5,1 C 0,0 UV-I 0,0 C 55 % 85 % 0 % 1007,0 hPa 0,0 l/m 2,2 km/h (1 Bft) 0 min 7,0 km/h (2 Bft)
12.11.2009 00:44 13,2 C 5,0 C 0,0 UV-I 0,0 C 55 % 85 % 0 % 1007,0 hPa 0,0 l/m 2,4 km/h (1 Bft) 0 min 4,1 km/h (1 Bft)
12.11.2009 00:46 13,2 C 5,1 C 0,0 UV-I 0,0 C 55 % 85 % 0 % 1007,0 hPa 0,0 l/m 2,4 km/h (1 Bft) 0 min 4,6 km/h (1 Bft)
12.11.2009 00:48 13,2 C 5,0 C 0,0 UV-I 0,0 C 55 % 86 % 0 % 1007,0 hPa 0,0 l/m 1,9 km/h (1 Bft) 0 min 4,6 km/h (1 Bft)
12.11.2009 00:50 13,1 C 4,9 C 0,0 UV-I 0,0 C 54 % 86 % 0 % 1007,0 hPa 0,0 l/m 1,4 km/h (1 Bft) 0 min 6,3 km/h (2 Bft)
12.11.2009 00:52 13,2 C 4,9 C 0,0 UV-I 0,0 C 54 % 86 % 0 % 1007,0 hPa 0,0 l/m 1,4 km/h (1 Bft) 0 min 6,3 km/h (2 Bft)
12.11.2009 00:54 13,2 C 4,9 C 0,0 UV-I 0,0 C 54 % 86 % 0 % 1006,9 hPa 0,0 l/m 1,7 km/h (1 Bft) 0 min 4,8 km/h (1 Bft)
12.11.2009 00:56 13,2 C 4,8 C 0,0 UV-I 0,0 C 54 % 86 % 0 % 1006,9 hPa 0,0 l/m 1,9 km/h (1 Bft) 0 min 5,3 km/h (1 Bft)
12.11.2009 00:58 13,2 C 4,8 C 0,0 UV-I 0,0 C 54 % 86 % 0 % 1006,9 hPa 0,0 l/m 2,4 km/h (1 Bft) 0 min 0,0 km/h (0 Bft)
12.11.2009 01:00 13,2 C 4,8 C 0,0 UV-I 0,0 C 54 % 86 % 0 % 1006,9 hPa 0,0 l/m 2,2 km/h (1 Bft) 0 min 0,0 km/h (0 Bft)
12.11.2009 01:02 13,2 C 4,7 C 0,0 UV-I 0,0 C 54 % 86 % 0 % 1006,9 hPa 0,0 l/m 2,2 km/h (1 Bft) 0 min 3,8 km/h (1 Bft)
12.11.2009 01:04 13,2 C 4,7 C 0,0 UV-I 0,0 C 54 % 86 % 0 % 1006,9 hPa 0,0 l/m 2,4 km/h (1 Bft) 0 min 3,8 km/h (1 Bft)
12.11.2009 01:06 13,2 C 4,6 C 0,0 UV-I 0,0 C 54 % 86 % 0 % 1006,9 hPa 0,0 l/m 1,9 km/h (1 Bft) 0 min 2,6 km/h (1 Bft)
12.11.2009 01:08 13,2 C 4,7 C 0,0 UV-I 0,0 C 54 % 86 % 0 % 1006,9 hPa 0,0 l/m 1,2 km/h (1 Bft) 0 min 0,0 km/h (0 Bft)
12.11.2009 01:10 13,2 C 4,7 C 0,0 UV-I 0,0 C 54 % 86 % 0 % 1006,9 hPa 0,0 l/m 1,0 km/h (0 Bft) 0 min 0,0 km/h (0 Bft)
12.11.2009 01:12 13,2 C 4,5 C 0,0 UV-I 0,0 C 54 % 86 % 0 % 1006,9 hPa 0,0 l/m 0,7 km/h (0 Bft) 0 min 0,0 km/h (0 Bft)
12.11.2009 01:14 13,2 C 4,5 C 0,0 UV-I 0,0 C 54 % 86 % 0 % 1007,0 hPa 0,0 l/m 0,5 km/h (0 Bft) 0 min 0,0 km/h (0 Bft)
12.11.2009 01:16 13,2 C 4,4 C 0,0 UV-I 0,0 C 54 % 86 % 0 % 1007,0 hPa 0,0 l/m 0,0 km/h (0 Bft) 0 min 0,0 km/h (0 Bft)
12.11.2009 01:18 13,2 C 4,4 C 0,0 UV-I 0,0 C 54 % 86 % 0 % 1007,0 hPa 0,0 l/m 0,2 km/h (0 Bft) 0 min 2,9 km/h (1 Bft)
12.11.2009 01:22 13,2 C 4,4 C 0,0 UV-I 0,0 C 54 % 87 % 0 % 1007,0 hPa 0,0 l/m 0,5 km/h (0 Bft) 0 min 4,1 km/h (1 Bft)
12.11.2009 01:24 13,2 C 4,3 C 0,0 UV-I 0,0 C 54 % 87 % 0 % 1007,0 hPa 0,0 l/m 0,5 km/h (0 Bft) 0 min 0,0 km/h (0 Bft)
12.11.2009 01:26 13,2 C 4,3 C 0,0 UV-I 0,0 C 54 % 87 % 0 % 1007,0 hPa 0,0 l/m 0,5 km/h (0 Bft) 0 min 0,0 km/h (0 Bft)
12.11.2009 01:28 13,2 C 4,2 C 0,0 UV-I 0,0 C 54 % 87 % 0 % 1007,0 hPa 0,0 l/m 0,2 km/h (0 Bft) 0 min 0,0 km/h (0 Bft)
12.11.2009 01:30 13,2 C 4,3 C 0,0 UV-I 0,0 C 54 % 87 % 0 % 1007,0 hPa 0,0 l/m 0,2 km/h (0 Bft) 0 min 0,0 km/h (0 Bft)
12.11.2009 01:32 13,2 C 4,2 C 0,0 UV-I 0,0 C 54 % 87 % 0 % 1007,0 hPa 0,0 l/m 0,2 km/h (0 Bft) 0 min 0,0 km/h (0 Bft)
12.11.2009 01:34 13,2 C 4,1 C 0,0 UV-I 0,0 C 54 % 87 % 0 % 1007,2 hPa 0,0 l/m 0,2 km/h (0 Bft) 0 min 0,0 km/h (0 Bft)
12.11.2009 01:36 13,1 C 4,1 C 0,0 UV-I 0,0 C 54 % 87 % 0 % 1007,2 hPa 0,0 l/m 0,2 km/h (0 Bft) 0 min 0,0 km/h (0 Bft)
12.11.2009 01:38 13,1 C 4,1 C 0,0 UV-I 0,0 C 54 % 87 % 0 % 1007,2 hPa 0,0 l/m 0,5 km/h (0 Bft) 0 min 3,8 km/h (1 Bft)
12.11.2009 01:40 13,1 C 4,0 C 0,0 UV-I 0,0 C 54 % 87 % 0 % 1007,2 hPa 0,0 l/m 0,7 km/h (0 Bft) 0 min 4,3 km/h (1 Bft)
12.11.2009 01:42 13,2 C 4,1 C 0,0 UV-I 0,0 C 54 % 87 % 0 % 1007,2 hPa 0,0 l/m 1,0 km/h (0 Bft) 0 min 4,3 km/h (1 Bft)
12.11.2009 01:44 13,1 C 4,0 C 0,0 UV-I 0,0 C 54 % 87 % 0 % 1007,2 hPa 0,0 l/m 1,4 km/h (1 Bft) 0 min 3,8 km/h (1 Bft)
12.11.2009 01:46 13,1 C 4,0 C 0,0 UV-I 0,0 C 54 % 88 % 0 % 1007,2 hPa 0,0 l/m 1,9 km/h (1 Bft) 0 min 4,3 km/h (1 Bft)
12.11.2009 01:48 13,1 C 3,9 C 0,0 UV-I 0,0 C 54 % 88 % 0 % 1007,2 hPa 0,0 l/m 2,2 km/h (1 Bft) 0 min 4,3 km/h (1 Bft)
12.11.2009 01:50 13,1 C 3,9 C 0,0 UV-I 0,0 C 54 % 88 % 0 % 1007,2 hPa 0,0 l/m 1,7 km/h (1 Bft) 0 min 0,0 km/h (0 Bft)
12.11.2009 01:52 13,1 C 3,9 C 0,0 UV-I 0,0 C 54 % 88 % 0 % 1007,2 hPa 0,0 l/m 1,4 km/h (1 Bft) 0 min 2,6 km/h (1 Bft)
12.11.2009 01:56 13,1 C 3,9 C 0,0 UV-I 0,0 C 54 % 88 % 0 % 1006,7 hPa 0,0 l/m 1,0 km/h (0 Bft) 0 min 4,6 km/h (1 Bft)
12.11.2009 01:58 13,1 C 3,9 C 0,0 UV-I 0,0 C 53 % 88 % 0 % 1006,7 hPa 0,0 l/m 0,7 km/h (0 Bft) 0 min 0,0 km/h (0 Bft)
12.11.2009 02:00 13,1 C 3,8 C 0,0 UV-I 0,0 C 53 % 88 % 0 % 1006,7 hPa 0,0 l/m 1,2 km/h (1 Bft) 0 min 3,6 km/h (1 Bft)
12.11.2009 02:02 13,1 C 3,7 C 0,0 UV-I 0,0 C 53 % 88 % 0 % 1006,7 hPa 0,0 l/m 1,0 km/h (0 Bft) 0 min 3,6 km/h (1 Bft)
12.11.2009 02:04 13,1 C 3,7 C 0,0 UV-I 0,0 C 53 % 88 % 0 % 1006,7 hPa 0,0 l/m 1,2 km/h (1 Bft) 0 min 0,0 km/h (0 Bft)
12.11.2009 02:06 13,1 C 3,7 C 0,0 UV-I 0,0 C 53 % 88 % 0 % 1006,7 hPa 0,0 l/m 1,0 km/h (0 Bft) 0 min 0,0 km/h (0 Bft)
12.11.2009 02:08 12,9 C 3,6 C 0,0 UV-I 0,0 C 53 % 87 % 0 % 1006,7 hPa 0,0 l/m 1,2 km/h (1 Bft) 0 min 3,4 km/h (1 Bft)
12.11.2009 02:10 12,9 C 3,7 C 0,0 UV-I 0,0 C 53 % 88 % 0 % 1006,7 hPa 0,0 l/m 1,0 km/h (0 Bft) 0 min 3,4 km/h (1 Bft)
12.11.2009 02:14 12,9 C 3,6 C 0,0 UV-I 0,0 C 53 % 88 % 0 % 1006,4 hPa 0,0 l/m 1,0 km/h (0 Bft) 0 min 3,1 km/h (1 Bft)
12.11.2009 02:16 12,9 C 3,6 C 0,0 UV-I 0,0 C 53 % 88 % 0 % 1006,4 hPa 0,0 l/m 0,7 km/h (0 Bft) 0 min 0,0 km/h (0 Bft)
12.11.2009 02:18 13,0 C 3,6 C 0,0 UV-I 0,0 C 53 % 88 % 0 % 1006,4 hPa 0,0 l/m 1,0 km/h (0 Bft) 0 min 0,0 km/h (0 Bft)
12.11.2009 02:20 13,0 C 3,5 C 0,0 UV-I 0,0 C 53 % 88 % 0 % 1006,4 hPa 0,0 l/m 0,7 km/h (0 Bft) 0 min 3,1 km/h (1 Bft)
12.11.2009 02:22 12,9 C 3,5 C 0,0 UV-I 0,0 C 53 % 88 % 0 % 1006,4 hPa 0,0 l/m 1,2 km/h (1 Bft) 0 min 3,8 km/h (1 Bft)
12.11.2009 02:24 12,9 C 3,5 C 0,0 UV-I 0,0 C 53 % 88 % 0 % 1006,4 hPa 0,0 l/m 1,0 km/h (0 Bft) 0 min 3,8 km/h (1 Bft)
12.11.2009 02:26 13,0 C 3,5 C 0,0 UV-I 0,0 C 53 % 88 % 0 % 1006,4 hPa 0,0 l/m 1,7 km/h (1 Bft) 0 min 6,3 km/h (2 Bft)
12.11.2009 02:28 13,0 C 3,5 C 0,0 UV-I 0,0 C 53 % 88 % 0 % 1006,4 hPa 0,0 l/m 1,7 km/h (1 Bft) 0 min 6,3 km/h (2 Bft)
12.11.2009 02:30 13,0 C 3,5 C 0,0 UV-I 0,0 C 53 % 88 % 0 % 1006,4 hPa 0,0 l/m 1,9 km/h (1 Bft) 0 min 0,0 km/h (0 Bft)
12.11.2009 02:32 13,0 C 3,5 C 0,0 UV-I 0,0 C 53 % 88 % 0 % 1006,4 hPa 0,0 l/m 2,4 km/h (1 Bft) 0 min 7,5 km/h (2 Bft)
12.11.2009 02:34 13,0 C 3,5 C 0,0 UV-I 0,0 C 53 % 88 % 0 % 1006,2 hPa 0,0 l/m 2,6 km/h (1 Bft) 0 min 11,5 km/h (2 Bft)
12.11.2009 02:36 13,0 C 3,5 C 0,0 UV-I 0,0 C 53 % 88 % 0 % 1006,2 hPa 0,0 l/m 3,1 km/h (1 Bft) 0 min 11,5 km/h (2 Bft)
12.11.2009 02:38 13,0 C 3,4 C 0,0 UV-I 0,0 C 53 % 88 % 0 % 1006,2 hPa 0,0 l/m 3,1 km/h (1 Bft) 0 min 5,3 km/h (1 Bft)
12.11.2009 02:40 13,0 C 3,5 C 0,0 UV-I 0,0 C 53 % 88 % 0 % 1006,2 hPa 0,0 l/m 3,1 km/h (1 Bft) 0 min 5,3 km/h (1 Bft)
12.11.2009 02:42 13,0 C 3,4 C 0,0 UV-I 0,0 C 53 % 88 % 0 % 1006,2 hPa 0,0 l/m 3,1 km/h (1 Bft) 0 min 11,5 km/h (2 Bft)
12.11.2009 02:44 13,0 C 3,3 C 0,0 UV-I 0,0 C 53 % 88 % 0 % 1006,2 hPa 0,0 l/m 2,6 km/h (1 Bft) 0 min 4,1 km/h (1 Bft)
12.11.2009 02:46 13,0 C 3,3 C 0,0 UV-I 0,0 C 53 % 88 % 0 % 1006,2 hPa 0,0 l/m 1,7 km/h (1 Bft) 0 min 4,1 km/h (1 Bft)
12.11.2009 02:52 12,8 C 3,3 C 0,0 UV-I 0,0 C 53 % 89 % 0 % 1006,2 hPa 0,0 l/m 1,2 km/h (1 Bft) 0 min 9,1 km/h (2 Bft)
12.11.2009 02:54 13,0 C 3,3 C 0,0 UV-I 0,0 C 53 % 89 % 0 % 1006,1 hPa 0,0 l/m 1,0 km/h (0 Bft) 0 min 2,6 km/h (1 Bft)
12.11.2009 02:56 12,8 C 3,3 C 0,0 UV-I 0,0 C 53 % 89 % 0 % 1006,1 hPa 0,0 l/m 1,2 km/h (1 Bft) 0 min 5,3 km/h (1 Bft)
12.11.2009 02:58 12,8 C 3,3 C 0,0 UV-I 0,0 C 53 % 89 % 0 % 1006,1 hPa 0,0 l/m 1,2 km/h (1 Bft) 0 min 5,3 km/h (1 Bft)
12.11.2009 03:00 12,8 C 3,3 C 0,0 UV-I 0,0 C 53 % 89 % 0 % 1006,1 hPa 0,0 l/m 1,0 km/h (0 Bft) 0 min 0,0 km/h (0 Bft)
12.11.2009 03:02 12,8 C 3,3 C 0,0 UV-I 0,0 C 53 % 89 % 0 % 1006,1 hPa 0,0 l/m 1,0 km/h (0 Bft) 0 min 0,0 km/h (0 Bft)
12.11.2009 03:04 12,8 C 3,3 C 0,0 UV-I 0,0 C 53 % 89 % 0 % 1006,1 hPa 0,0 l/m 1,0 km/h (0 Bft) 0 min 0,0 km/h (0 Bft)
12.11.2009 03:06 12,8 C 3,3 C 0,0 UV-I 0,0 C 53 % 89 % 0 % 1006,1 hPa 0,0 l/m 1,4 km/h (1 Bft) 0 min 3,1 km/h (1 Bft)
12.11.2009 03:08 12,8 C 3,3 C 0,0 UV-I 0,0 C 53 % 89 % 0 % 1006,1 hPa 0,0 l/m 1,2 km/h (1 Bft) 0 min 3,1 km/h (1 Bft)
12.11.2009 03:10 12,8 C 3,3 C 0,0 UV-I 0,0 C 53 % 89 % 0 % 1006,1 hPa 0,0 l/m 1,0 km/h (0 Bft) 0 min 2,4 km/h (1 Bft)
12.11.2009 03:12 12,8 C 3,3 C 0,0 UV-I 0,0 C 53 % 89 % 0 % 1006,1 hPa 0,0 l/m 1,0 km/h (0 Bft) 0 min 0,0 km/h (0 Bft)
12.11.2009 03:14 12,8 C 3,3 C 0,0 UV-I 0,0 C 53 % 89 % 0 % 1005,9 hPa 0,0 l/m 1,0 km/h (0 Bft) 0 min 2,6 km/h (1 Bft)
12.11.2009 03:16 12,8 C 3,3 C 0,0 UV-I 0,0 C 53 % 89 % 0 % 1005,9 hPa 0,0 l/m 1,0 km/h (0 Bft) 0 min 2,9 km/h (1 Bft)
12.11.2009 03:19 12,8 C 3,3 C 0,0 UV-I 0,0 C 53 % 89 % 0 % 1005,9 hPa 0,0 l/m 1,0 km/h (0 Bft) 0 min 0,0 km/h (0 Bft)
12.11.2009 03:20 12,8 C 3,3 C 0,0 UV-I 0,0 C 53 % 89 % 0 % 1005,9 hPa 0,0 l/m 1,0 km/h (0 Bft) 0 min 0,0 km/h (0 Bft)
12.11.2009 03:22 12,8 C 3,3 C 0,0 UV-I 0,0 C 53 % 89 % 0 % 1005,9 hPa 0,0 l/m 0,7 km/h (0 Bft) 0 min 0,0 km/h (0 Bft)
12.11.2009 03:24 12,8 C 3,3 C 0,0 UV-I 0,0 C 53 % 89 % 0 % 1005,9 hPa 0,0 l/m 0,7 km/h (0 Bft) 0 min 2,4 km/h (1 Bft)
12.11.2009 03:26 12,8 C 3,3 C 0,0 UV-I 0,0 C 53 % 89 % 0 % 1005,9 hPa 0,0 l/m 0,7 km/h (0 Bft) 0 min 2,4 km/h (1 Bft)
12.11.2009 03:28 12,8 C 3,3 C 0,0 UV-I 0,0 C 53 % 89 % 0 % 1005,9 hPa 0,0 l/m 0,7 km/h (0 Bft) 0 min 3,4 km/h (1 Bft)
12.11.2009 03:30 12,8 C 3,3 C 0,0 UV-I 0,0 C 53 % 89 % 0 % 1005,9 hPa 0,0 l/m 1,0 km/h (0 Bft) 0 min 3,4 km/h (1 Bft)
12.11.2009 03:32 12,9 C 3,3 C 0,0 UV-I 0,0 C 53 % 89 % 0 % 1005,9 hPa 0,0 l/m 1,0 km/h (0 Bft) 0 min 0,0 km/h (0 Bft)
12.11.2009 03:34 12,9 C 3,3 C 0,0 UV-I 0,0 C 53 % 89 % 0 % 1005,6 hPa 0,0 l/m 1,2 km/h (1 Bft) 0 min 0,0 km/h (0 Bft)
12.11.2009 03:36 12,9 C 3,3 C 0,0 UV-I 0,0 C 53 % 89 % 0 % 1005,6 hPa 0,0 l/m 1,0 km/h (0 Bft) 0 min 0,0 km/h (0 Bft)
12.11.2009 03:38 12,9 C 3,3 C 0,0 UV-I 0,0 C 53 % 89 % 0 % 1005,6 hPa 0,0 l/m 0,7 km/h (0 Bft) 0 min 0,0 km/h (0 Bft)
12.11.2009 03:40 12,9 C 3,3 C 0,0 UV-I 0,0 C 53 % 89 % 0 % 1005,6 hPa 0,0 l/m 0,5 km/h (0 Bft) 0 min 0,0 km/h (0 Bft)
12.11.2009 03:42 12,9 C 3,2 C 0,0 UV-I 0,0 C 53 % 89 % 0 % 1005,6 hPa 0,0 l/m 0,5 km/h (0 Bft) 0 min 0,0 km/h (0 Bft)
12.11.2009 03:44 12,9 C 3,2 C 0,0 UV-I 0,0 C 53 % 90 % 0 % 1005,6 hPa 0,0 l/m 0,2 km/h (0 Bft) 0 min 0,0 km/h (0 Bft)
12.11.2009 03:46 12,8 C 3,2 C 0,0 UV-I 0,0 C 53 % 90 % 0 % 1005,6 hPa 0,0 l/m 0,7 km/h (0 Bft) 0 min 2,6 km/h (1 Bft)
12.11.2009 03:48 12,9 C 3,3 C 0,0 UV-I 0,0 C 53 % 90 % 0 % 1005,6 hPa 0,0 l/m 0,7 km/h (0 Bft) 0 min 2,6 km/h (1 Bft)
12.11.2009 03:50 12,8 C 3,3 C 0,0 UV-I 0,0 C 53 % 90 % 0 % 1005,6 hPa 0,0 l/m 0,7 km/h (0 Bft) 0 min 0,0 km/h (0 Bft)
12.11.2009 03:52 12,8 C 3,2 C 0,0 UV-I 0,0 C 53 % 90 % 0 % 1005,6 hPa 0,0 l/m 0,7 km/h (0 Bft) 0 min 0,0 km/h (0 Bft)
12.11.2009 03:54 12,8 C 3,2 C 0,0 UV-I 0,0 C 53 % 90 % 0 % 1005,3 hPa 0,0 l/m 0,5 km/h (0 Bft) 0 min 0,0 km/h (0 Bft)
12.11.2009 03:56 12,8 C 3,2 C 0,0 UV-I 0,0 C 53 % 90 % 0 % 1005,3 hPa 0,0 l/m 0,5 km/h (0 Bft) 0 min 0,0 km/h (0 Bft)
12.11.2009 03:58 12,8 C 3,2 C 0,0 UV-I 0,0 C 53 % 90 % 0 % 1005,3 hPa 0,0 l/m 0,2 km/h (0 Bft) 0 min 0,0 km/h (0 Bft)
12.11.2009 04:00 12,8 C 3,2 C 0,0 UV-I 0,0 C 53 % 90 % 0 % 1005,3 hPa 0,0 l/m 0,5 km/h (0 Bft) 0 min 4,8 km/h (1 Bft)
12.11.2009 04:02 12,8 C 3,2 C 0,0 UV-I 0,0 C 54 % 90 % 0 % 1005,3 hPa 0,0 l/m 0,5 km/h (0 Bft) 0 min 4,8 km/h (1 Bft)
12.11.2009 04:04 12,8 C 3,2 C 0,0 UV-I 0,0 C 53 % 90 % 0 % 1005,3 hPa 0,0 l/m 0,5 km/h (0 Bft) 0 min 0,0 km/h (0 Bft)
12.11.2009 04:06 12,8 C 3,2 C 0,0 UV-I 0,0 C 54 % 91 % 0 % 1005,3 hPa 0,0 l/m 0,5 km/h (0 Bft) 0 min 0,0 km/h (0 Bft)
12.11.2009 04:08 12,8 C 3,2 C 0,0 UV-I 0,0 C 54 % 91 % 0 % 1005,3 hPa 0,0 l/m 0,7 km/h (0 Bft) 0 min 0,0 km/h (0 Bft)
12.11.2009 04:10 12,8 C 3,2 C 0,0 UV-I 0,0 C 54 % 91 % 0 % 1005,3 hPa 0,0 l/m 0,7 km/h (0 Bft) 0 min 2,9 km/h (1 Bft)
12.11.2009 04:14 12,8 C 3,2 C 0,0 UV-I 0,0 C 54 % 91 % 0 % 1005,2 hPa 0,0 l/m 1,2 km/h (1 Bft) 0 min 4,3 km/h (1 Bft)
12.11.2009 04:15 12,8 C 3,2 C 0,0 UV-I 0,0 C 54 % 91 % 0 % 1005,2 hPa 0,0 l/m 1,4 km/h (1 Bft) 0 min 4,6 km/h (1 Bft)
12.11.2009 04:16 12,8 C 3,2 C 0,0 UV-I 0,0 C 54 % 91 % 0 % 1005,2 hPa 0,0 l/m 1,4 km/h (1 Bft) 0 min 4,6 km/h (1 Bft)
12.11.2009 04:18 12,8 C 3,2 C 0,0 UV-I 0,0 C 54 % 91 % 0 % 1005,2 hPa 0,0 l/m 1,4 km/h (1 Bft) 0 min 4,6 km/h (1 Bft)
12.11.2009 04:20 12,8 C 3,3 C 0,0 UV-I 0,0 C 54 % 91 % 0 % 1005,2 hPa 0,0 l/m 1,4 km/h (1 Bft) 0 min 0,0 km/h (0 Bft)
12.11.2009 04:22 12,8 C 3,2 C 0,0 UV-I 0,0 C 54 % 91 % 0 % 1005,2 hPa 0,0 l/m 1,2 km/h (1 Bft) 0 min 0,0 km/h (0 Bft)
12.11.2009 04:24 12,8 C 3,2 C 0,0 UV-I 0,0 C 54 % 91 % 0 % 1005,2 hPa 0,0 l/m 0,7 km/h (0 Bft) 0 min 0,0 km/h (0 Bft)
12.11.2009 04:26 12,8 C 3,2 C 0,0 UV-I 0,0 C 54 % 91 % 0 % 1005,2 hPa 0,0 l/m 0,5 km/h (0 Bft) 0 min 0,0 km/h (0 Bft)
12.11.2009 04:28 12,8 C 3,2 C 0,0 UV-I 0,0 C 54 % 91 % 0 % 1005,2 hPa 0,0 l/m 0,2 km/h (0 Bft) 0 min 0,0 km/h (0 Bft)
12.11.2009 04:30 12,8 C 3,2 C 0,0 UV-I 0,0 C 54 % 91 % 0 % 1005,2 hPa 0,0 l/m 0,2 km/h (0 Bft) 0 min 0,0 km/h (0 Bft)
12.11.2009 04:32 12,8 C 3,2 C 0,0 UV-I 0,0 C 54 % 91 % 0 % 1005,2 hPa 0,0 l/m 0,2 km/h (0 Bft) 0 min 0,0 km/h (0 Bft)
12.11.2009 04:34 12,8 C 3,2 C 0,0 UV-I 0,0 C 54 % 91 % 0 % 1004,9 hPa 0,0 l/m 0,2 km/h (0 Bft) 0 min 0,0 km/h (0 Bft)
12.11.2009 04:36 12,8 C 3,2 C 0,0 UV-I 0,0 C 54 % 91 % 0 % 1004,9 hPa 0,0 l/m 0,5 km/h (0 Bft) 0 min 0,0 km/h (0 Bft)
12.11.2009 04:38 12,8 C 3,2 C 0,0 UV-I 0,0 C 54 % 91 % 0 % 1004,9 hPa 0,0 l/m 0,7 km/h (0 Bft) 0 min 6,5 km/h (2 Bft)
12.11.2009 04:40 12,8 C 3,2 C 0,0 UV-I 0,0 C 54 % 91 % 0 % 1004,9 hPa 0,0 l/m 1,4 km/h (1 Bft) 0 min 9,4 km/h (2 Bft)
12.11.2009 04:42 12,8 C 3,2 C 0,0 UV-I 0,0 C 54 % 91 % 0 % 1004,9 hPa 0,0 l/m 1,4 km/h (1 Bft) 0 min 9,4 km/h (2 Bft)
12.11.2009 04:44 13,0 C 3,3 C 0,0 UV-I 0,0 C 54 % 92 % 0 % 1004,9 hPa 0,0 l/m 1,7 km/h (1 Bft) 0 min 8,7 km/h (2 Bft)
12.11.2009 04:46 13,0 C 3,2 C 0,0 UV-I 0,0 C 54 % 91 % 0 % 1004,9 hPa 0,0 l/m 1,7 km/h (1 Bft) 0 min 8,7 km/h (2 Bft)
12.11.2009 04:48 12,8 C 3,2 C 0,0 UV-I 0,0 C 54 % 91 % 0 % 1004,9 hPa 0,0 l/m 1,7 km/h (1 Bft) 0 min 5,1 km/h (1 Bft)
12.11.2009 04:50 12,8 C 3,3 C 0,0 UV-I 0,0 C 54 % 92 % 0 % 1004,9 hPa 0,0 l/m 1,7 km/h (1 Bft) 0 min 5,1 km/h (1 Bft)
12.11.2009 04:52 13,0 C 3,3 C 0,0 UV-I 0,0 C 54 % 92 % 0 % 1004,9 hPa 0,0 l/m 1,7 km/h (1 Bft) 0 min 4,3 km/h (1 Bft)
12.11.2009 04:54 12,8 C 3,3 C 0,0 UV-I 0,0 C 54 % 92 % 0 % 1004,7 hPa 0,0 l/m 2,2 km/h (1 Bft) 0 min 4,3 km/h (1 Bft)
12.11.2009 04:56 12,8 C 3,3 C 0,0 UV-I 0,0 C 54 % 92 % 0 % 1004,7 hPa 0,0 l/m 2,9 km/h (1 Bft) 0 min 4,8 km/h (1 Bft)
12.11.2009 04:58 12,8 C 3,3 C 0,0 UV-I 0,0 C 54 % 91 % 0 % 1004,7 hPa 0,0 l/m 3,1 km/h (1 Bft) 0 min 4,8 km/h (1 Bft)
12.11.2009 05:00 13,0 C 3,3 C 0,0 UV-I 0,0 C 54 % 91 % 0 % 1004,7 hPa 0,0 l/m 2,9 km/h (1 Bft) 0 min 0,0 km/h (0 Bft)
12.11.2009 05:02 12,8 C 3,3 C 0,0 UV-I 0,0 C 54 % 91 % 0 % 1004,7 hPa 0,0 l/m 2,9 km/h (1 Bft) 0 min 11,8 km/h (2 Bft)
12.11.2009 05:04 13,0 C 3,3 C 0,0 UV-I 0,0 C 54 % 91 % 0 % 1004,7 hPa 0,0 l/m 2,2 km/h (1 Bft) 0 min 0,0 km/h (0 Bft)
12.11.2009 05:06 12,8 C 3,3 C 0,0 UV-I 0,0 C 54 % 91 % 0 % 1004,7 hPa 0,0 l/m 1,4 km/h (1 Bft) 0 min 2,4 km/h (1 Bft)
12.11.2009 05:08 12,8 C 3,3 C 0,0 UV-I 0,0 C 54 % 91 % 0 % 1004,7 hPa 0,0 l/m 0,7 km/h (0 Bft) 0 min 2,4 km/h (1 Bft)
12.11.2009 05:10 12,8 C 3,3 C 0,0 UV-I 0,0 C 53 % 91 % 0 % 1004,7 hPa 0,0 l/m 1,2 km/h (1 Bft) 0 min 2,6 km/h (1 Bft)
12.11.2009 05:12 12,8 C 3,3 C 0,0 UV-I 0,0 C 54 % 91 % 0 % 1004,7 hPa 0,0 l/m 1,2 km/h (1 Bft) 0 min 2,6 km/h (1 Bft)
12.11.2009 05:14 12,8 C 3,3 C 0,0 UV-I 0,0 C 53 % 91 % 0 % 1004,6 hPa 0,0 l/m 1,2 km/h (1 Bft) 0 min 4,6 km/h (1 Bft)
12.11.2009 05:16 12,8 C 3,3 C 0,0 UV-I 0,0 C 53 % 91 % 0 % 1004,6 hPa 0,0 l/m 1,7 km/h (1 Bft) 0 min 7,7 km/h (2 Bft)
12.11.2009 05:18 12,8 C 3,3 C 0,0 UV-I 0,0 C 53 % 91 % 0 % 1004,6 hPa 0,0 l/m 2,6 km/h (1 Bft) 0 min 7,7 km/h (2 Bft)
12.11.2009 05:20 12,8 C 3,3 C 0,0 UV-I 0,0 C 53 % 91 % 0 % 1004,6 hPa 0,0 l/m 2,4 km/h (1 Bft) 0 min 6,7 km/h (2 Bft)
12.11.2009 05:22 12,8 C 3,3 C 0,0 UV-I 0,0 C 53 % 91 % 0 % 1004,6 hPa 0,0 l/m 2,4 km/h (1 Bft) 0 min 3,1 km/h (1 Bft)
12.11.2009 05:24 12,9 C 3,3 C 0,0 UV-I 0,0 C 53 % 91 % 0 % 1004,6 hPa 0,0 l/m 2,6 km/h (1 Bft) 0 min 4,3 km/h (1 Bft)
12.11.2009 05:26 12,8 C 3,3 C 0,0 UV-I 0,0 C 53 % 91 % 0 % 1004,6 hPa 0,0 l/m 2,9 km/h (1 Bft) 0 min 7,2 km/h (2 Bft)
12.11.2009 05:28 12,8 C 3,4 C 0,0 UV-I 0,0 C 53 % 91 % 0 % 1004,6 hPa 0,0 l/m 2,9 km/h (1 Bft) 0 min 7,2 km/h (2 Bft)
12.11.2009 05:30 12,9 C 3,4 C 0,0 UV-I 0,0 C 53 % 91 % 0 % 1004,6 hPa 0,0 l/m 2,9 km/h (1 Bft) 0 min 3,4 km/h (1 Bft)
12.11.2009 05:32 12,8 C 3,5 C 0,0 UV-I 0,0 C 53 % 91 % 0 % 1004,6 hPa 0,0 l/m 2,9 km/h (1 Bft) 0 min 7,5 km/h (2 Bft)
12.11.2009 05:34 12,8 C 3,5 C 0,0 UV-I 0,0 C 53 % 91 % 0 % 1004,4 hPa 0,0 l/m 3,6 km/h (1 Bft) 0 min 8,7 km/h (2 Bft)
12.11.2009 05:36 12,8 C 3,5 C 0,0 UV-I 0,0 C 53 % 91 % 0 % 1004,4 hPa 0,0 l/m 3,1 km/h (1 Bft) 0 min 8,7 km/h (2 Bft)
12.11.2009 05:38 12,9 C 3,4 C 0,0 UV-I 0,0 C 53 % 91 % 0 % 1004,4 hPa 0,0 l/m 2,9 km/h (1 Bft) 0 min 4,3 km/h (1 Bft)
12.11.2009 05:42 12,8 C 3,5 C 0,0 UV-I 0,0 C 53 % 91 % 0 % 1004,4 hPa 0,0 l/m 3,1 km/h (1 Bft) 0 min 13,0 km/h (3 Bft)
12.11.2009 05:44 12,8 C 3,5 C 0,0 UV-I 0,0 C 53 % 92 % 0 % 1004,4 hPa 0,0 l/m 3,1 km/h (1 Bft) 0 min 7,0 km/h (2 Bft)
12.11.2009 05:46 12,8 C 3,6 C 0,0 UV-I 0,0 C 53 % 91 % 0 % 1004,4 hPa 0,0 l/m 3,1 km/h (1 Bft) 0 min 7,9 km/h (2 Bft)
12.11.2009 05:48 12,8 C 3,6 C 0,0 UV-I 0,0 C 53 % 91 % 0 % 1004,4 hPa 0,0 l/m 3,6 km/h (1 Bft) 0 min 7,9 km/h (2 Bft)
12.11.2009 05:50 12,8 C 3,6 C 0,0 UV-I 0,0 C 53 % 91 % 0 % 1004,4 hPa 0,0 l/m 3,6 km/h (1 Bft) 0 min 5,8 km/h (2 Bft)
12.11.2009 05:52 12,8 C 3,7 C 0,0 UV-I 0,0 C 53 % 91 % 0 % 1004,4 hPa 0,0 l/m 3,6 km/h (1 Bft) 0 min 5,8 km/h (2 Bft)
12.11.2009 05:54 12,8 C 3,7 C 0,0 UV-I 0,0 C 53 % 91 % 0 % 1004,2 hPa 0,0 l/m 3,4 km/h (1 Bft) 0 min 5,8 km/h (2 Bft)
12.11.2009 05:56 12,8 C 3,6 C 0,0 UV-I 0,0 C 53 % 91 % 0 % 1004,2 hPa 0,0 l/m 3,1 km/h (1 Bft) 0 min 4,1 km/h (1 Bft)
12.11.2009 05:58 12,8 C 3,6 C 0,0 UV-I 0,0 C 53 % 91 % 0 % 1004,2 hPa 0,0 l/m 2,9 km/h (1 Bft) 0 min 4,1 km/h (1 Bft)
12.11.2009 06:00 12,8 C 3,7 C 0,0 UV-I 0,0 C 53 % 91 % 0 % 1004,2 hPa 0,0 l/m 2,2 km/h (1 Bft) 0 min 2,6 km/h (1 Bft)
12.11.2009 06:02 12,8 C 3,7 C 0,0 UV-I 0,0 C 53 % 91 % 0 % 1004,2 hPa 0,0 l/m 2,2 km/h (1 Bft) 0 min 9,1 km/h (2 Bft)
12.11.2009 06:04 12,8 C 3,7 C 0,0 UV-I 0,0 C 53 % 91 % 0 % 1004,2 hPa 0,0 l/m 2,2 km/h (1 Bft) 0 min 9,1 km/h (2 Bft)
12.11.2009 06:06 12,8 C 3,7 C 0,0 UV-I 0,0 C 53 % 91 % 0 % 1004,2 hPa 0,0 l/m 2,2 km/h (1 Bft) 0 min 9,1 km/h (2 Bft)
12.11.2009 06:08 12,8 C 3,7 C 0,0 UV-I 0,0 C 53 % 91 % 0 % 1004,2 hPa 0,0 l/m 2,2 km/h (1 Bft) 0 min 9,1 km/h (2 Bft)
12.11.2009 06:10 12,8 C 3,7 C 0,0 UV-I 0,0 C 53 % 91 % 0 % 1004,2 hPa 0,0 l/m 2,2 km/h (1 Bft) 0 min 9,1 km/h (2 Bft)
12.11.2009 06:12 12,8 C 3,9 C 0,0 UV-I 0,0 C 53 % 91 % 0 % 1004,2 hPa 0,0 l/m 3,8 km/h (1 Bft) 0 min 9,1 km/h (2 Bft)
12.11.2009 06:14 12,8 C 3,9 C 0,0 UV-I 0,0 C 53 % 91 % 0 % 1004,4 hPa 0,0 l/m 4,3 km/h (1 Bft) 0 min 3,6 km/h (1 Bft)
12.11.2009 06:18 12,8 C 3,8 C 0,0 UV-I 0,0 C 53 % 91 % 0 % 1004,4 hPa 0,0 l/m 5,5 km/h (1 Bft) 0 min 9,1 km/h (2 Bft)
12.11.2009 06:20 12,8 C 3,8 C 0,0 UV-I 0,0 C 53 % 91 % 0 % 1004,4 hPa 0,0 l/m 5,8 km/h (2 Bft) 0 min 11,5 km/h (2 Bft)
12.11.2009 06:22 12,8 C 3,9 C 0,0 UV-I 0,0 C 53 % 91 % 0 % 1004,4 hPa 0,0 l/m 6,0 km/h (2 Bft) 0 min 18,3 km/h (3 Bft)
12.11.2009 06:24 12,8 C 3,9 C 0,0 UV-I 0,0 C 53 % 91 % 0 % 1004,4 hPa 0,0 l/m 6,3 km/h (2 Bft) 0 min 4,8 km/h (1 Bft)
12.11.2009 06:26 12,8 C 3,9 C 0,0 UV-I 0,0 C 53 % 91 % 0 % 1004,4 hPa 0,0 l/m 6,0 km/h (2 Bft) 0 min 7,0 km/h (2 Bft)
12.11.2009 06:28 12,8 C 4,0 C 0,0 UV-I 0,0 C 53 % 91 % 0 % 1004,4 hPa 0,0 l/m 5,5 km/h (1 Bft) 0 min 7,0 km/h (2 Bft)
12.11.2009 06:30 12,8 C 4,0 C 0,0 UV-I 0,0 C 53 % 91 % 0 % 1004,4 hPa 0,0 l/m 4,8 km/h (1 Bft) 0 min 2,9 km/h (1 Bft)
12.11.2009 06:32 12,8 C 4,1 C 0,0 UV-I 0,0 C 53 % 91 % 0 % 1004,4 hPa 0,0 l/m 4,1 km/h (1 Bft) 0 min 4,3 km/h (1 Bft)
12.11.2009 06:34 12,8 C 4,0 C 0,0 UV-I 0,0 C 53 % 91 % 0 % 1004,3 hPa 0,0 l/m 3,4 km/h (1 Bft) 0 min 6,0 km/h (2 Bft)
12.11.2009 06:36 12,8 C 4,1 C 0,0 UV-I 0,0 C 53 % 91 % 0 % 1004,3 hPa 0,0 l/m 3,6 km/h (1 Bft) 0 min 6,0 km/h (2 Bft)
12.11.2009 06:38 12,8 C 4,0 C 0,0 UV-I 0,0 C 53 % 91 % 0 % 1004,3 hPa 0,0 l/m 3,8 km/h (1 Bft) 0 min 6,3 km/h (2 Bft)
12.11.2009 06:40 12,8 C 4,0 C 0,0 UV-I 0,0 C 53 % 91 % 0 % 1004,3 hPa 0,0 l/m 4,8 km/h (1 Bft) 0 min 16,1 km/h (3 Bft)
12.11.2009 06:42 12,8 C 4,1 C 0,0 UV-I 0,0 C 53 % 91 % 0 % 1004,3 hPa 0,0 l/m 5,1 km/h (1 Bft) 0 min 16,1 km/h (3 Bft)
12.11.2009 06:44 12,8 C 4,1 C 0,0 UV-I 0,0 C 53 % 91 % 0 % 1004,3 hPa 0,0 l/m 5,3 km/h (1 Bft) 0 min 17,1 km/h (3 Bft)
12.11.2009 06:46 12,8 C 4,1 C 0,0 UV-I 0,0 C 54 % 91 % 0 % 1004,3 hPa 0,0 l/m 4,8 km/h (1 Bft) 0 min 17,1 km/h (3 Bft)
12.11.2009 06:48 12,8 C 4,1 C 0,0 UV-I 0,0 C 54 % 91 % 0 % 1004,3 hPa 0,0 l/m 5,3 km/h (1 Bft) 0 min 9,6 km/h (2 Bft)
12.11.2009 06:50 12,8 C 4,1 C 0,0 UV-I 0,0 C 54 % 91 % 0 % 1004,3 hPa 0,0 l/m 4,6 km/h (1 Bft) 0 min 9,6 km/h (2 Bft)
12.11.2009 06:52 12,8 C 4,2 C 0,0 UV-I 0,0 C 54 % 91 % 0 % 1004,3 hPa 0,0 l/m 4,1 km/h (1 Bft) 0 min 6,7 km/h (2 Bft)
12.11.2009 06:54 12,8 C 4,2 C 0,0 UV-I 0,0 C 54 % 91 % 0 % 1004,1 hPa 0,1 l/m 4,3 km/h (1 Bft) 0 min 11,5 km/h (2 Bft)
12.11.2009 06:56 12,8 C 4,3 C 0,0 UV-I 0,0 C 54 % 91 % 0 % 1004,1 hPa 0,0 l/m 4,6 km/h (1 Bft) 0 min 11,5 km/h (2 Bft)
12.11.2009 06:58 12,8 C 4,3 C 0,0 UV-I 0,0 C 54 % 91 % 0 % 1004,1 hPa 0,0 l/m 4,6 km/h (1 Bft) 0 min 11,1 km/h (2 Bft)
12.11.2009 07:00 12,8 C 4,3 C 0,0 UV-I 0,0 C 54 % 91 % 0 % 1004,1 hPa 0,2 l/m 4,3 km/h (1 Bft) 0 min 11,1 km/h (2 Bft)
12.11.2009 07:02 12,8 C 4,3 C 0,0 UV-I 0,0 C 54 % 91 % 0 % 1004,1 hPa 0,0 l/m 4,8 km/h (1 Bft) 0 min 10,3 km/h (2 Bft)
12.11.2009 07:04 12,8 C 4,3 C 0,0 UV-I 0,0 C 54 % 92 % 0 % 1004,1 hPa 0,1 l/m 5,3 km/h (1 Bft) 0 min 8,7 km/h (2 Bft)
12.11.2009 07:06 12,8 C 4,3 C 0,0 UV-I 0,0 C 55 % 92 % 0 % 1004,1 hPa 0,3 l/m 4,8 km/h (1 Bft) 0 min 4,6 km/h (1 Bft)
12.11.2009 07:08 12,8 C 4,3 C 0,0 UV-I 0,0 C 55 % 92 % 0 % 1004,1 hPa 0,0 l/m 4,6 km/h (1 Bft) 0 min 5,5 km/h (1 Bft)
12.11.2009 07:10 12,8 C 4,3 C 0,0 UV-I 0,0 C 55 % 92 % 0 % 1004,1 hPa 0,1 l/m 4,1 km/h (1 Bft) 0 min 5,5 km/h (1 Bft)
12.11.2009 07:14 12,8 C 4,3 C 0,0 UV-I 0,0 C 55 % 92 % 0 % 1004,1 hPa 0,0 l/m 3,6 km/h (1 Bft) 0 min 5,1 km/h (1 Bft)
12.11.2009 07:16 12,8 C 4,2 C 0,0 UV-I 0,0 C 55 % 92 % 0 % 1004,1 hPa 0,1 l/m 3,4 km/h (1 Bft) 0 min 7,7 km/h (2 Bft)
12.11.2009 07:18 12,8 C 4,2 C 0,0 UV-I 0,0 C 55 % 92 % 0 % 1004,1 hPa 0,0 l/m 4,1 km/h (1 Bft) 0 min 7,7 km/h (2 Bft)
12.11.2009 07:20 12,6 C 4,2 C 0,0 UV-I 0,0 C 55 % 92 % 0 % 1004,1 hPa 0,0 l/m 3,8 km/h (1 Bft) 0 min 5,3 km/h (1 Bft)
12.11.2009 07:22 12,8 C 4,3 C 0,0 UV-I 0,0 C 55 % 92 % 0 % 1004,1 hPa 0,0 l/m 4,3 km/h (1 Bft) 0 min 6,3 km/h (2 Bft)
12.11.2009 07:24 12,6 C 4,3 C 0,0 UV-I 0,0 C 55 % 92 % 0 % 1004,1 hPa 0,0 l/m 4,8 km/h (1 Bft) 0 min 13,2 km/h (3 Bft)
12.11.2009 07:26 12,6 C 4,3 C 0,0 UV-I 0,0 C 55 % 92 % 0 % 1004,1 hPa 0,0 l/m 4,3 km/h (1 Bft) 0 min 13,2 km/h (3 Bft)
12.11.2009 07:28 12,7 C 4,3 C 0,0 UV-I 0,0 C 55 % 92 % 0 % 1004,1 hPa 0,1 l/m 4,1 km/h (1 Bft) 0 min 8,2 km/h (2 Bft)
12.11.2009 07:30 12,7 C 4,3 C 0,0 UV-I 0,0 C 55 % 92 % 0 % 1004,1 hPa 0,0 l/m 4,3 km/h (1 Bft) 0 min 8,2 km/h (2 Bft)
12.11.2009 07:34 12,7 C 4,3 C 0,0 UV-I 0,0 C 56 % 92 % 0 % 1003,8 hPa 0,5 l/m 3,6 km/h (1 Bft) 0 min 9,4 km/h (2 Bft)
12.11.2009 07:36 12,7 C 4,3 C 0,0 UV-I 0,0 C 56 % 92 % 0 % 1003,8 hPa 0,0 l/m 3,6 km/h (1 Bft) 0 min 7,2 km/h (2 Bft)
12.11.2009 07:38 12,7 C 4,3 C 0,0 UV-I 0,0 C 56 % 92 % 0 % 1003,8 hPa 0,2 l/m 4,1 km/h (1 Bft) 0 min 7,7 km/h (2 Bft)
12.11.2009 07:40 12,7 C 4,4 C 0,0 UV-I 0,0 C 56 % 92 % 0 % 1003,8 hPa 0,2 l/m 4,1 km/h (1 Bft) 0 min 8,2 km/h (2 Bft)
12.11.2009 07:42 12,7 C 4,4 C 0,0 UV-I 0,0 C 56 % 92 % 0 % 1003,8 hPa 0,0 l/m 4,6 km/h (1 Bft) 0 min 8,2 km/h (2 Bft)
12.11.2009 07:44 12,7 C 4,4 C 0,0 UV-I 0,0 C 56 % 92 % 0 % 1003,8 hPa 0,0 l/m 4,6 km/h (1 Bft) 0 min 7,2 km/h (2 Bft)
12.11.2009 07:46 12,7 C 4,4 C 0,0 UV-I 0,0 C 56 % 93 % 0 % 1003,8 hPa 0,0 l/m 4,3 km/h (1 Bft) 0 min 7,2 km/h (2 Bft)
12.11.2009 07:48 12,7 C 4,4 C 0,0 UV-I 0,0 C 56 % 93 % 0 % 1003,8 hPa 0,0 l/m 3,8 km/h (1 Bft) 0 min 7,2 km/h (2 Bft)
12.11.2009 07:50 12,6 C 4,4 C 0,0 UV-I 0,0 C 56 % 93 % 0 % 1003,8 hPa 0,1 l/m 3,6 km/h (1 Bft) 0 min 6,3 km/h (2 Bft)
12.11.2009 07:52 12,6 C 4,4 C 0,0 UV-I 0,0 C 56 % 93 % 0 % 1003,8 hPa 0,0 l/m 3,1 km/h (1 Bft) 0 min 6,3 km/h (2 Bft)
12.11.2009 07:56 12,6 C 4,4 C 0,0 UV-I 0,0 C 56 % 93 % 0 % 1003,9 hPa 0,0 l/m 3,4 km/h (1 Bft) 0 min 8,7 km/h (2 Bft)
12.11.2009 07:58 12,6 C 4,4 C 0,0 UV-I 0,0 C 56 % 93 % 0 % 1003,9 hPa 0,1 l/m 3,4 km/h (1 Bft) 0 min 8,7 km/h (2 Bft)
12.11.2009 08:00 12,6 C 4,5 C 0,0 UV-I 0,0 C 56 % 93 % 0 % 1003,9 hPa 0,0 l/m 3,6 km/h (1 Bft) 0 min 4,1 km/h (1 Bft)
12.11.2009 08:02 12,6 C 4,4 C 0,0 UV-I 0,0 C 57 % 93 % 0 % 1003,9 hPa 0,0 l/m 3,4 km/h (1 Bft) 0 min 8,2 km/h (2 Bft)
12.11.2009 08:04 12,7 C 4,4 C 0,0 UV-I 0,0 C 57 % 93 % 0 % 1003,9 hPa 0,0 l/m 3,4 km/h (1 Bft) 0 min 8,2 km/h (2 Bft)
12.11.2009 08:06 12,6 C 4,4 C 0,0 UV-I 0,0 C 57 % 93 % 0 % 1003,9 hPa 0,0 l/m 3,8 km/h (1 Bft) 0 min 5,5 km/h (1 Bft)
12.11.2009 08:08 12,6 C 4,4 C 0,0 UV-I 0,0 C 57 % 93 % 0 % 1003,9 hPa 0,1 l/m 3,4 km/h (1 Bft) 0 min 5,5 km/h (1 Bft)
12.11.2009 08:10 12,7 C 4,4 C 0,0 UV-I 0,0 C 57 % 93 % 0 % 1003,9 hPa 0,0 l/m 3,1 km/h (1 Bft) 0 min 5,1 km/h (1 Bft)
12.11.2009 08:12 12,6 C 4,5 C 0,0 UV-I 0,0 C 57 % 93 % 0 % 1003,9 hPa 0,0 l/m 3,4 km/h (1 Bft) 0 min 4,8 km/h (1 Bft)
12.11.2009 08:14 12,7 C 4,4 C 0,0 UV-I 0,0 C 57 % 93 % 0 % 1003,9 hPa 0,0 l/m 3,4 km/h (1 Bft) 0 min 13,0 km/h (3 Bft)
12.11.2009 08:16 12,7 C 4,5 C 0,0 UV-I 0,0 C 57 % 93 % 0 % 1003,9 hPa 0,0 l/m 4,1 km/h (1 Bft) 0 min 6,0 km/h (2 Bft)
12.11.2009 08:18 12,7 C 4,5 C 0,0 UV-I 0,0 C 57 % 93 % 0 % 1003,9 hPa 0,0 l/m 4,6 km/h (1 Bft) 0 min 6,0 km/h (2 Bft)
12.11.2009 08:20 12,7 C 4,5 C 0,0 UV-I 0,0 C 57 % 93 % 0 % 1003,9 hPa 0,0 l/m 5,3 km/h (1 Bft) 0 min 13,0 km/h (3 Bft)
12.11.2009 08:22 12,7 C 4,5 C 0,0 UV-I 0,0 C 57 % 94 % 0 % 1003,9 hPa 0,0 l/m 5,3 km/h (1 Bft) 0 min 13,0 km/h (3 Bft)
12.11.2009 08:24 12,7 C 4,6 C 0,0 UV-I 0,0 C 57 % 94 % 0 % 1003,9 hPa 0,0 l/m 5,5 km/h (1 Bft) 0 min 11,1 km/h (2 Bft)
12.11.2009 08:26 12,7 C 4,5 C 0,0 UV-I 0,0 C 57 % 94 % 0 % 1003,9 hPa 0,0 l/m 5,1 km/h (1 Bft) 0 min 6,7 km/h (2 Bft)
12.11.2009 08:28 12,7 C 4,5 C 0,0 UV-I 0,0 C 57 % 94 % 0 % 1003,9 hPa 0,0 l/m 4,6 km/h (1 Bft) 0 min 6,5 km/h (2 Bft)
12.11.2009 08:30 12,6 C 4,6 C 0,0 UV-I 0,0 C 57 % 94 % 0 % 1003,9 hPa 0,0 l/m 5,5 km/h (1 Bft) 0 min 11,8 km/h (2 Bft)
12.11.2009 08:32 12,6 C 4,7 C 0,0 UV-I 0,0 C 57 % 94 % 0 % 1003,9 hPa 0,0 l/m 5,5 km/h (1 Bft) 0 min 11,8 km/h (2 Bft)
12.11.2009 08:34 12,7 C 4,7 C 0,0 UV-I 0,0 C 57 % 94 % 0 % 1003,9 hPa 0,0 l/m 6,0 km/h (2 Bft) 0 min 12,0 km/h (2 Bft)
12.11.2009 08:36 12,7 C 4,7 C 0,0 UV-I 0,0 C 57 % 94 % 0 % 1003,9 hPa 0,0 l/m 5,8 km/h (2 Bft) 0 min 12,0 km/h (2 Bft)
12.11.2009 08:38 12,7 C 4,7 C 0,0 UV-I 0,0 C 57 % 94 % 0 % 1003,9 hPa 0,1 l/m 6,7 km/h (2 Bft) 0 min 11,5 km/h (2 Bft)
12.11.2009 08:40 12,7 C 4,6 C 0,0 UV-I 0,0 C 57 % 94 % 0 % 1003,9 hPa 0,0 l/m 7,0 km/h (2 Bft) 0 min 11,5 km/h (2 Bft)
12.11.2009 08:42 12,7 C 4,6 C 0,0 UV-I 0,0 C 57 % 94 % 0 % 1003,9 hPa 0,0 l/m 7,0 km/h (2 Bft) 0 min 12,8 km/h (3 Bft)
12.11.2009 08:44 12,7 C 4,7 C 0,0 UV-I 0,0 C 58 % 94 % 0 % 1003,9 hPa 0,0 l/m 7,5 km/h (2 Bft) 0 min 18,8 km/h (3 Bft)
12.11.2009 08:46 12,7 C 4,7 C 0,0 UV-I 0,0 C 58 % 94 % 0 % 1003,9 hPa 0,0 l/m 7,9 km/h (2 Bft) 0 min 18,8 km/h (3 Bft)
12.11.2009 08:48 12,7 C 4,7 C 0,0 UV-I 0,0 C 58 % 94 % 0 % 1003,9 hPa 0,0 l/m 8,9 km/h (2 Bft) 0 min 15,9 km/h (3 Bft)
12.11.2009 08:50 12,6 C 4,7 C 0,0 UV-I 0,0 C 58 % 94 % 0 % 1003,9 hPa 0,1 l/m 9,6 km/h (2 Bft) 0 min 15,9 km/h (3 Bft)
12.11.2009 08:56 12,7 C 4,8 C 0,0 UV-I 0,0 C 58 % 94 % 0 % 1003,9 hPa 0,0 l/m 7,9 km/h (2 Bft) 0 min 18,8 km/h (3 Bft)
12.11.2009 08:58 12,7 C 4,7 C 0,0 UV-I 0,0 C 58 % 94 % 0 % 1003,9 hPa 0,0 l/m 7,7 km/h (2 Bft) 0 min 13,7 km/h (3 Bft)
12.11.2009 09:00 12,6 C 4,7 C 0,0 UV-I 0,0 C 58 % 94 % 0 % 1003,9 hPa 0,0 l/m 6,7 km/h (2 Bft) 0 min 5,3 km/h (1 Bft)
12.11.2009 09:04 12,6 C 4,8 C 0,0 UV-I 0,0 C 58 % 94 % 0 % 1003,9 hPa 0,0 l/m 7,0 km/h (2 Bft) 0 min 13,2 km/h (3 Bft)
12.11.2009 09:06 12,7 C 4,8 C 0,0 UV-I 0,0 C 58 % 94 % 0 % 1003,9 hPa 0,0 l/m 7,0 km/h (2 Bft) 0 min 13,2 km/h (3 Bft)
12.11.2009 09:08 12,6 C 4,8 C 0,0 UV-I 0,0 C 58 % 94 % 0 % 1003,9 hPa 0,0 l/m 7,2 km/h (2 Bft) 0 min 13,0 km/h (3 Bft)
12.11.2009 09:10 12,6 C 4,8 C 0,0 UV-I 0,0 C 58 % 94 % 0 % 1003,9 hPa 0,0 l/m 6,7 km/h (2 Bft) 0 min 8,9 km/h (2 Bft)
12.11.2009 09:12 12,6 C 4,8 C 0,0 UV-I 0,0 C 58 % 95 % 0 % 1003,9 hPa 0,0 l/m 7,0 km/h (2 Bft) 0 min 8,9 km/h (2 Bft)
12.11.2009 09:14 12,6 C 4,9 C 0,0 UV-I 0,0 C 58 % 95 % 0 % 1004,1 hPa 0,1 l/m 6,7 km/h (2 Bft) 0 min 8,2 km/h (2 Bft)
12.11.2009 09:16 12,6 C 4,8 C 0,0 UV-I 0,0 C 58 % 95 % 0 % 1004,1 hPa 0,0 l/m 5,8 km/h (2 Bft) 0 min 8,2 km/h (2 Bft)
12.11.2009 09:18 12,6 C 4,8 C 0,0 UV-I 0,0 C 58 % 95 % 0 % 1004,1 hPa 0,1 l/m 6,0 km/h (2 Bft) 0 min 5,8 km/h (2 Bft)
12.11.2009 09:20 12,6 C 4,8 C 0,0 UV-I 0,0 C 58 % 95 % 0 % 1004,1 hPa 0,0 l/m 5,3 km/h (1 Bft) 0 min 5,8 km/h (2 Bft)
12.11.2009 09:22 12,6 C 4,8 C 0,0 UV-I 0,0 C 58 % 95 % 0 % 1004,1 hPa 0,0 l/m 5,1 km/h (1 Bft) 0 min 6,5 km/h (2 Bft)
12.11.2009 09:24 12,6 C 4,8 C 0,0 UV-I 0,0 C 59 % 95 % 0 % 1004,1 hPa 0,1 l/m 4,6 km/h (1 Bft) 0 min 6,5 km/h (2 Bft)
12.11.2009 09:26 12,6 C 4,8 C 0,0 UV-I 0,0 C 59 % 95 % 0 % 1004,1 hPa 0,0 l/m 4,8 km/h (1 Bft) 0 min 4,8 km/h (1 Bft)
12.11.2009 09:28 12,6 C 4,8 C 0,0 UV-I 0,0 C 59 % 95 % 0 % 1004,1 hPa 0,0 l/m 4,6 km/h (1 Bft) 0 min 0,0 km/h (0 Bft)
12.11.2009 09:30 12,6 C 4,9 C 0,0 UV-I 0,0 C 59 % 95 % 0 % 1004,1 hPa 0,0 l/m 4,1 km/h (1 Bft) 0 min 4,3 km/h (1 Bft)
12.11.2009 09:32 12,6 C 4,9 C 0,0 UV-I 0,0 C 59 % 95 % 0 % 1004,1 hPa 0,0 l/m 4,3 km/h (1 Bft) 0 min 8,7 km/h (2 Bft)
12.11.2009 09:34 12,6 C 4,9 C 0,0 UV-I 0,0 C 59 % 95 % 0 % 1003,9 hPa 0,0 l/m 4,1 km/h (1 Bft) 0 min 8,7 km/h (2 Bft)
12.11.2009 09:36 12,6 C 4,9 C 0,0 UV-I 0,0 C 59 % 95 % 0 % 1003,9 hPa 0,1 l/m 4,6 km/h (1 Bft) 0 min 8,9 km/h (2 Bft)
12.11.2009 09:38 12,6 C 5,0 C 0,0 UV-I 0,0 C 59 % 95 % 0 % 1003,9 hPa 0,0 l/m 4,6 km/h (1 Bft) 0 min 8,9 km/h (2 Bft)
12.11.2009 09:40 12,6 C 5,1 C 0,0 UV-I 0,0 C 59 % 95 % 0 % 1003,9 hPa 0,1 l/m 5,1 km/h (1 Bft) 0 min 5,8 km/h (2 Bft)
12.11.2009 09:42 12,6 C 5,0 C 0,0 UV-I 0,0 C 59 % 95 % 0 % 1003,9 hPa 0,1 l/m 4,8 km/h (1 Bft) 0 min 5,8 km/h (2 Bft)
12.11.2009 09:44 12,6 C 5,1 C 0,0 UV-I 0,0 C 59 % 95 % 0 % 1003,9 hPa 0,0 l/m 4,6 km/h (1 Bft) 0 min 0,0 km/h (0 Bft)
12.11.2009 09:48 12,6 C 5,1 C 0,0 UV-I 0,0 C 59 % 95 % 0 % 1003,9 hPa 0,1 l/m 3,6 km/h (1 Bft) 0 min 2,6 km/h (1 Bft)
12.11.2009 09:50 12,6 C 5,1 C 0,0 UV-I 0,0 C 59 % 95 % 0 % 1003,9 hPa 0,0 l/m 3,6 km/h (1 Bft) 0 min 7,2 km/h (2 Bft)
12.11.2009 09:52 12,6 C 5,0 C 0,0 UV-I 0,0 C 59 % 95 % 0 % 1003,9 hPa 0,0 l/m 4,3 km/h (1 Bft) 0 min 6,5 km/h (2 Bft)
12.11.2009 09:54 12,6 C 5,0 C 0,0 UV-I 0,0 C 59 % 95 % 0 % 1004,1 hPa 0,0 l/m 3,8 km/h (1 Bft) 0 min 2,9 km/h (1 Bft)
12.11.2009 09:56 12,7 C 5,0 C 0,0 UV-I 0,0 C 59 % 95 % 0 % 1004,1 hPa 0,0 l/m 3,8 km/h (1 Bft) 0 min 2,9 km/h (1 Bft)
12.11.2009 09:58 12,7 C 5,1 C 0,0 UV-I 0,0 C 59 % 95 % 0 % 1004,1 hPa 0,0 l/m 4,1 km/h (1 Bft) 0 min 9,6 km/h (2 Bft)
12.11.2009 10:00 12,7 C 5,1 C 0,0 UV-I 0,0 C 59 % 95 % 0 % 1004,1 hPa 0,0 l/m 4,8 km/h (1 Bft) 0 min 9,6 km/h (2 Bft)
12.11.2009 10:02 12,7 C 5,2 C 0,0 UV-I 0,0 C 59 % 95 % 0 % 1004,1 hPa 0,0 l/m 4,1 km/h (1 Bft) 0 min 8,9 km/h (2 Bft)
12.11.2009 10:06 12,7 C 5,2 C 0,0 UV-I 0,0 C 59 % 95 % 0 % 1004,1 hPa 0,0 l/m 4,3 km/h (1 Bft) 0 min 7,7 km/h (2 Bft)
12.11.2009 10:08 12,7 C 5,3 C 0,0 UV-I 0,0 C 59 % 95 % 0 % 1004,1 hPa 0,0 l/m 4,6 km/h (1 Bft) 0 min 7,7 km/h (2 Bft)
12.11.2009 10:12 12,6 C 5,2 C 0,0 UV-I 0,0 C 60 % 95 % 0 % 1004,1 hPa 0,0 l/m 4,3 km/h (1 Bft) 0 min 6,0 km/h (2 Bft)
12.11.2009 10:14 12,6 C 5,3 C 0,0 UV-I 0,0 C 60 % 95 % 0 % 1004,5 hPa 0,0 l/m 4,6 km/h (1 Bft) 0 min 5,8 km/h (2 Bft)
12.11.2009 10:18 12,6 C 5,5 C 0,0 UV-I 0,0 C 60 % 95 % 0 % 1004,5 hPa 0,0 l/m 5,1 km/h (1 Bft) 0 min 11,1 km/h (2 Bft)
12.11.2009 10:20 12,6 C 5,3 C 0,0 UV-I 0,0 C 60 % 95 % 0 % 1004,5 hPa 0,0 l/m 4,8 km/h (1 Bft) 0 min 5,5 km/h (1 Bft)
12.11.2009 10:22 12,8 C 5,3 C 0,0 UV-I 0,0 C 60 % 95 % 0 % 1004,5 hPa 0,0 l/m 4,1 km/h (1 Bft) 0 min 5,3 km/h (1 Bft)
12.11.2009 10:24 12,6 C 5,5 C 0,0 UV-I 0,0 C 60 % 95 % 0 % 1004,5 hPa 0,0 l/m 3,4 km/h (1 Bft) 0 min 5,3 km/h (1 Bft)
12.11.2009 10:28 12,8 C 5,4 C 0,0 UV-I 0,0 C 60 % 95 % 0 % 1004,5 hPa 0,0 l/m 3,8 km/h (1 Bft) 0 min 9,6 km/h (2 Bft)
12.11.2009 10:34 12,8 C 5,6 C 0,0 UV-I 0,0 C 60 % 95 % 0 % 1004,4 hPa 0,0 l/m 5,8 km/h (2 Bft) 0 min 9,6 km/h (2 Bft)
12.11.2009 10:38 12,8 C 5,6 C 0,0 UV-I 0,0 C 60 % 95 % 0 % 1004,4 hPa 0,0 l/m 7,5 km/h (2 Bft) 0 min 14,0 km/h (3 Bft)
12.11.2009 10:40 12,8 C 5,7 C 0,0 UV-I 0,0 C 60 % 95 % 0 % 1004,4 hPa 0,0 l/m 7,2 km/h (2 Bft) 0 min 14,0 km/h (3 Bft)
12.11.2009 10:42 12,8 C 5,6 C 0,0 UV-I 0,0 C 60 % 95 % 0 % 1004,4 hPa 0,0 l/m 7,0 km/h (2 Bft) 0 min 4,6 km/h (1 Bft)
12.11.2009 10:44 12,8 C 5,6 C 0,0 UV-I 0,0 C 60 % 95 % 0 % 1004,4 hPa 0,0 l/m 6,7 km/h (2 Bft) 0 min 8,9 km/h (2 Bft)
12.11.2009 10:48 12,8 C 5,7 C 0,0 UV-I 0,0 C 60 % 95 % 0 % 1004,4 hPa 0,0 l/m 5,1 km/h (1 Bft) 0 min 3,4 km/h (1 Bft)
12.11.2009 10:50 12,8 C 5,8 C 0,0 UV-I 0,0 C 60 % 95 % 0 % 1004,4 hPa 0,0 l/m 4,1 km/h (1 Bft) 0 min 2,6 km/h (1 Bft)
12.11.2009 10:52 12,8 C 5,8 C 0,0 UV-I 0,0 C 60 % 95 % 0 % 1004,4 hPa 0,0 l/m 3,4 km/h (1 Bft) 0 min 5,3 km/h (1 Bft)
12.11.2009 10:54 12,8 C 5,8 C 0,2 UV-I 0,0 C 60 % 95 % 0 % 1004,6 hPa 0,0 l/m 3,6 km/h (1 Bft) 0 min 5,3 km/h (1 Bft)
12.11.2009 10:58 12,8 C 5,9 C 0,2 UV-I 0,0 C 60 % 95 % 0 % 1004,6 hPa 0,0 l/m 4,1 km/h (1 Bft) 0 min 7,2 km/h (2 Bft)
12.11.2009 11:00 12,8 C 5,9 C 0,3 UV-I 0,0 C 60 % 95 % 0 % 1004,6 hPa 0,0 l/m 5,1 km/h (1 Bft) 0 min 7,2 km/h (2 Bft)
12.11.2009 11:02 12,8 C 5,9 C 0,3 UV-I 0,0 C 60 % 95 % 0 % 1004,6 hPa 0,0 l/m 5,5 km/h (1 Bft) 0 min 7,2 km/h (2 Bft)
12.11.2009 11:04 12,8 C 5,9 C 0,4 UV-I 0,0 C 60 % 95 % 0 % 1004,6 hPa 0,0 l/m 5,8 km/h (2 Bft) 0 min 7,5 km/h (2 Bft)
12.11.2009 11:06 12,8 C 6,0 C 0,4 UV-I 0,0 C 60 % 96 % 0 % 1004,6 hPa 0,0 l/m 6,0 km/h (2 Bft) 0 min 8,4 km/h (2 Bft)
12.11.2009 11:08 12,8 C 6,0 C 0,4 UV-I 0,0 C 60 % 96 % 0 % 1004,6 hPa 0,0 l/m 6,0 km/h (2 Bft) 0 min 8,7 km/h (2 Bft)
12.11.2009 11:10 12,8 C 6,0 C 0,4 UV-I 0,0 C 61 % 96 % 0 % 1004,6 hPa 0,0 l/m 5,3 km/h (1 Bft) 0 min 0,0 km/h (0 Bft)
12.11.2009 11:12 12,9 C 6,0 C 0,4 UV-I 0,1 C 61 % 96 % 3 % 1004,6 hPa 0,0 l/m 4,8 km/h (1 Bft) 0 min 5,5 km/h (1 Bft)
12.11.2009 11:14 12,9 C 6,0 C 0,4 UV-I 0,2 C 61 % 96 % 6 % 1004,7 hPa 0,0 l/m 4,6 km/h (1 Bft) 0 min 9,4 km/h (2 Bft)
12.11.2009 11:16 12,8 C 6,1 C 0,4 UV-I 0,2 C 61 % 96 % 6 % 1004,7 hPa 0,0 l/m 4,8 km/h (1 Bft) 0 min 10,3 km/h (2 Bft)
12.11.2009 11:18 12,8 C 6,3 C 0,4 UV-I 0,1 C 61 % 96 % 3 % 1004,7 hPa 0,0 l/m 4,8 km/h (1 Bft) 0 min 10,3 km/h (2 Bft)
12.11.2009 11:22 13,0 C 6,3 C 0,1 UV-I 0,0 C 61 % 96 % 0 % 1004,7 hPa 0,0 l/m 6,0 km/h (2 Bft) 0 min 10,6 km/h (2 Bft)
12.11.2009 11:26 13,0 C 6,3 C 0,1 UV-I 0,0 C 61 % 96 % 0 % 1004,7 hPa 0,0 l/m 5,8 km/h (2 Bft) 0 min 10,6 km/h (2 Bft)
12.11.2009 11:28 13,0 C 6,4 C 0,1 UV-I 0,0 C 61 % 96 % 0 % 1004,7 hPa 0,0 l/m 5,5 km/h (1 Bft) 0 min 7,9 km/h (2 Bft)
12.11.2009 11:32 13,0 C 6,5 C 0,2 UV-I 0,0 C 61 % 96 % 0 % 1004,7 hPa 0,0 l/m 5,5 km/h (1 Bft) 0 min 8,7 km/h (2 Bft)
12.11.2009 11:36 13,0 C 6,5 C 0,4 UV-I 0,3 C 61 % 96 % 9 % 1004,9 hPa 0,0 l/m 5,1 km/h (1 Bft) 0 min 10,6 km/h (2 Bft)
12.11.2009 11:38 12,9 C 6,5 C 0,4 UV-I 0,3 C 61 % 96 % 9 % 1004,9 hPa 0,0 l/m 5,3 km/h (1 Bft) 0 min 10,6 km/h (2 Bft)
12.11.2009 11:42 13,1 C 6,7 C 0,2 UV-I 0,2 C 61 % 96 % 6 % 1004,9 hPa 0,0 l/m 4,8 km/h (1 Bft) 0 min 6,5 km/h (2 Bft)
12.11.2009 11:46 13,1 C 6,7 C 0,2 UV-I 0,3 C 61 % 96 % 9 % 1004,9 hPa 0,0 l/m 4,6 km/h (1 Bft) 0 min 5,5 km/h (1 Bft)
12.11.2009 11:48 13,1 C 6,7 C 0,2 UV-I 0,4 C 61 % 96 % 11 % 1004,9 hPa 0,0 l/m 4,6 km/h (1 Bft) 0 min 6,0 km/h (2 Bft)
12.11.2009 11:52 13,1 C 6,8 C 0,1 UV-I 0,3 C 61 % 96 % 9 % 1004,9 hPa 0,0 l/m 4,8 km/h (1 Bft) 0 min 6,0 km/h (2 Bft)
12.11.2009 11:54 13,1 C 6,8 C 0,2 UV-I 0,4 C 61 % 96 % 11 % 1004,8 hPa 0,0 l/m 4,6 km/h (1 Bft) 0 min 4,1 km/h (1 Bft)
12.11.2009 11:56 13,1 C 6,9 C 0,2 UV-I 0,3 C 61 % 96 % 9 % 1004,8 hPa 0,0 l/m 4,6 km/h (1 Bft) 0 min 8,4 km/h (2 Bft)
12.11.2009 11:58 13,2 C 6,9 C 0,2 UV-I 0,4 C 61 % 96 % 11 % 1004,8 hPa 0,0 l/m 4,1 km/h (1 Bft) 0 min 8,4 km/h (2 Bft)
12.11.2009 12:00 13,2 C 6,9 C 0,1 UV-I 0,5 C 61 % 96 % 14 % 1004,8 hPa 0,0 l/m 3,1 km/h (1 Bft) 0 min 2,4 km/h (1 Bft)
12.11.2009 12:02 13,2 C 7,1 C 0,1 UV-I 0,4 C 61 % 96 % 11 % 1004,8 hPa 0,0 l/m 2,2 km/h (1 Bft) 0 min 3,4 km/h (1 Bft)
12.11.2009 12:06 13,2 C 7,2 C 0,1 UV-I 0,5 C 62 % 96 % 14 % 1004,8 hPa 0,0 l/m 2,6 km/h (1 Bft) 0 min 3,4 km/h (1 Bft)
12.11.2009 12:08 13,2 C 7,3 C 0,1 UV-I 0,6 C 61 % 96 % 17 % 1004,8 hPa 0,0 l/m 2,6 km/h (1 Bft) 0 min 5,5 km/h (1 Bft)
12.11.2009 12:10 13,1 C 7,5 C 0,1 UV-I 0,6 C 62 % 96 % 17 % 1004,8 hPa 0,0 l/m 3,1 km/h (1 Bft) 0 min 5,5 km/h (1 Bft)
12.11.2009 12:16 13,1 C 7,7 C 0,1 UV-I 0,8 C 62 % 96 % 23 % 1005,1 hPa 0,0 l/m 3,1 km/h (1 Bft) 0 min 5,8 km/h (2 Bft)
12.11.2009 12:18 13,1 C 7,8 C 0,1 UV-I 0,8 C 62 % 96 % 23 % 1005,1 hPa 0,0 l/m 3,6 km/h (1 Bft) 0 min 8,7 km/h (2 Bft)
12.11.2009 12:22 13,3 C 7,9 C 0,1 UV-I 0,9 C 62 % 96 % 26 % 1005,1 hPa 0,0 l/m 3,4 km/h (1 Bft) 0 min 8,7 km/h (2 Bft)
12.11.2009 12:30 13,2 C 8,3 C 0,1 UV-I 0,6 C 63 % 96 % 17 % 1005,1 hPa 0,0 l/m 3,6 km/h (1 Bft) 0 min 4,8 km/h (1 Bft)
12.11.2009 12:32 13,2 C 8,3 C 0,1 UV-I 0,7 C 63 % 96 % 20 % 1005,1 hPa 0,0 l/m 3,8 km/h (1 Bft) 0 min 4,3 km/h (1 Bft)
12.11.2009 12:34 13,2 C 8,3 C 0,1 UV-I 0,7 C 63 % 96 % 20 % 1005,4 hPa 0,0 l/m 3,8 km/h (1 Bft) 0 min 4,3 km/h (1 Bft)
12.11.2009 12:38 13,2 C 8,4 C 0,1 UV-I 0,7 C 63 % 96 % 20 % 1005,4 hPa 0,0 l/m 3,6 km/h (1 Bft) 0 min 6,5 km/h (2 Bft)
12.11.2009 12:40 13,2 C 8,5 C 0,2 UV-I 0,6 C 63 % 96 % 17 % 1005,4 hPa 0,0 l/m 3,8 km/h (1 Bft) 0 min 12,0 km/h (2 Bft)
12.11.2009 12:46 13,2 C 8,5 C 0,2 UV-I 0,7 C 63 % 96 % 20 % 1005,4 hPa 0,0 l/m 4,6 km/h (1 Bft) 0 min 12,0 km/h (2 Bft)
12.11.2009 12:48 13,4 C 8,6 C 0,2 UV-I 0,7 C 64 % 96 % 20 % 1005,4 hPa 0,0 l/m 4,3 km/h (1 Bft) 0 min 10,1 km/h (2 Bft)
12.11.2009 12:50 13,4 C 8,7 C 0,1 UV-I 0,6 C 64 % 96 % 17 % 1005,4 hPa 0,0 l/m 4,1 km/h (1 Bft) 0 min 4,6 km/h (1 Bft)
12.11.2009 13:00 13,4 C 8,8 C 0,0 UV-I 0,5 C 64 % 95 % 14 % 1005,4 hPa 0,0 l/m 3,8 km/h (1 Bft) 0 min 13,2 km/h (3 Bft)
12.11.2009 13:02 13,4 C 8,8 C 0,0 UV-I 0,5 C 64 % 95 % 14 % 1005,4 hPa 0,0 l/m 4,3 km/h (1 Bft) 0 min 5,5 km/h (1 Bft)
12.11.2009 13:04 13,4 C 8,9 C 0,0 UV-I 0,4 C 64 % 95 % 11 % 1005,4 hPa 0,0 l/m 4,8 km/h (1 Bft) 0 min 4,8 km/h (1 Bft)
12.11.2009 13:09 13,4 C 9,0 C 0,0 UV-I 0,3 C 64 % 95 % 9 % 1005,4 hPa 0,0 l/m 5,1 km/h (1 Bft) 0 min 10,8 km/h (2 Bft)
12.11.2009 13:14 13,4 C 9,1 C 0,0 UV-I 0,2 C 64 % 94 % 6 % 1005,4 hPa 0,0 l/m 5,5 km/h (1 Bft) 0 min 9,4 km/h (2 Bft)
12.11.2009 13:16 13,4 C 9,0 C 0,0 UV-I 0,4 C 64 % 94 % 11 % 1005,4 hPa 0,0 l/m 5,5 km/h (1 Bft) 0 min 9,4 km/h (2 Bft)
12.11.2009 13:18 13,4 C 9,1 C 0,0 UV-I 0,3 C 64 % 94 % 9 % 1005,4 hPa 0,0 l/m 5,5 km/h (1 Bft) 0 min 8,7 km/h (2 Bft)
12.11.2009 13:20 13,4 C 9,1 C 0,5 UV-I 0,5 C 64 % 94 % 14 % 1005,4 hPa 0,0 l/m 5,3 km/h (1 Bft) 0 min 8,7 km/h (2 Bft)
12.11.2009 13:22 13,4 C 9,2 C 0,5 UV-I 0,6 C 65 % 94 % 17 % 1005,4 hPa 0,0 l/m 4,8 km/h (1 Bft) 0 min 7,2 km/h (2 Bft)
12.11.2009 13:24 13,3 C 9,2 C 0,7 UV-I 0,8 C 65 % 94 % 23 % 1005,4 hPa 0,0 l/m 5,1 km/h (1 Bft) 0 min 6,7 km/h (2 Bft)
12.11.2009 13:26 13,5 C 9,3 C 0,7 UV-I 1,1 C 65 % 94 % 31 % 1005,4 hPa 0,0 l/m 4,6 km/h (1 Bft) 0 min 14,0 km/h (3 Bft)
12.11.2009 13:28 13,5 C 9,5 C 0,7 UV-I 1,5 C 65 % 94 % 43 % 1005,4 hPa 0,0 l/m 4,3 km/h (1 Bft) 0 min 14,0 km/h (3 Bft)
12.11.2009 13:30 13,4 C 9,5 C 0,7 UV-I 1,7 C 65 % 94 % 49 % 1005,4 hPa 0,0 l/m 4,1 km/h (1 Bft) 0 min 10,6 km/h (2 Bft)
12.11.2009 13:32 13,4 C 9,6 C 0,7 UV-I 2,0 C 65 % 95 % 57 % 1005,4 hPa 0,0 l/m 4,1 km/h (1 Bft) 0 min 10,6 km/h (2 Bft)
12.11.2009 13:34 13,6 C 9,7 C 1,5 UV-I 2,5 C 65 % 94 % 71 % 1005,9 hPa 0,0 l/m 4,1 km/h (1 Bft) 0 min 5,8 km/h (2 Bft)
12.11.2009 13:36 13,6 C 9,9 C 1,5 UV-I 2,6 C 65 % 94 % 74 % 1005,9 hPa 0,0 l/m 4,1 km/h (1 Bft) 0 min 8,7 km/h (2 Bft)
12.11.2009 13:38 13,7 C 9,9 C 1,5 UV-I 3,3 C 65 % 94 % 94 % 1005,9 hPa 0,0 l/m 4,1 km/h (1 Bft) 2 min 8,9 km/h (2 Bft)
12.11.2009 13:40 13,6 C 10,0 C 1,1 UV-I 3,6 C 65 % 94 % 100 % 1005,9 hPa 0,0 l/m 4,1 km/h (1 Bft) 2 min 8,9 km/h (2 Bft)
12.11.2009 13:42 13,6 C 10,1 C 1,1 UV-I 3,7 C 65 % 93 % 100 % 1005,9 hPa 0,0 l/m 4,1 km/h (1 Bft) 2 min 7,7 km/h (2 Bft)
12.11.2009 13:44 13,8 C 10,1 C 1,2 UV-I 3,5 C 65 % 93 % 100 % 1005,9 hPa 0,0 l/m 4,8 km/h (1 Bft) 2 min 6,7 km/h (2 Bft)
12.11.2009 13:46 13,8 C 10,2 C 1,2 UV-I 3,0 C 65 % 93 % 86 % 1005,9 hPa 0,0 l/m 4,8 km/h (1 Bft) 2 min 6,5 km/h (2 Bft)
12.11.2009 13:48 13,8 C 10,1 C 1,2 UV-I 2,6 C 65 % 93 % 74 % 1005,9 hPa 0,0 l/m 4,8 km/h (1 Bft) 0 min 5,3 km/h (1 Bft)
12.11.2009 13:50 13,9 C 10,3 C 0,2 UV-I 2,0 C 65 % 93 % 57 % 1005,9 hPa 0,0 l/m 4,6 km/h (1 Bft) 0 min 6,0 km/h (2 Bft)
12.11.2009 13:52 13,9 C 10,3 C 0,2 UV-I 1,7 C 65 % 93 % 49 % 1005,9 hPa 0,0 l/m 4,8 km/h (1 Bft) 0 min 8,4 km/h (2 Bft)
12.11.2009 13:54 13,8 C 10,3 C 0,6 UV-I 1,4 C 65 % 92 % 40 % 1005,9 hPa 0,0 l/m 4,8 km/h (1 Bft) 0 min 8,4 km/h (2 Bft)
12.11.2009 13:56 14,0 C 10,3 C 0,6 UV-I 1,3 C 65 % 92 % 37 % 1005,9 hPa 0,0 l/m 4,1 km/h (1 Bft) 0 min 4,8 km/h (1 Bft)
12.11.2009 13:58 14,0 C 10,3 C 0,6 UV-I 1,1 C 65 % 92 % 31 % 1005,9 hPa 0,0 l/m 4,3 km/h (1 Bft) 0 min 5,1 km/h (1 Bft)
12.11.2009 14:00 14,0 C 10,3 C 0,5 UV-I 1,0 C 65 % 92 % 29 % 1005,9 hPa 0,0 l/m 4,3 km/h (1 Bft) 0 min 5,1 km/h (1 Bft)
12.11.2009 14:02 14,0 C 10,3 C 0,5 UV-I 0,9 C 65 % 92 % 26 % 1005,9 hPa 0,0 l/m 4,1 km/h (1 Bft) 0 min 5,1 km/h (1 Bft)
12.11.2009 14:04 14,0 C 10,2 C 0,5 UV-I 1,0 C 65 % 92 % 29 % 1005,9 hPa 0,0 l/m 4,1 km/h (1 Bft) 0 min 16,1 km/h (3 Bft)
12.11.2009 14:06 14,0 C 10,3 C 0,5 UV-I 0,8 C 65 % 91 % 23 % 1005,9 hPa 0,0 l/m 4,3 km/h (1 Bft) 0 min 16,1 km/h (3 Bft)
12.11.2009 14:08 14,0 C 10,3 C 0,5 UV-I 0,7 C 65 % 92 % 20 % 1005,9 hPa 0,0 l/m 4,1 km/h (1 Bft) 0 min 4,6 km/h (1 Bft)
12.11.2009 14:10 14,0 C 10,3 C 0,2 UV-I 0,7 C 64 % 91 % 20 % 1005,9 hPa 0,0 l/m 3,6 km/h (1 Bft) 0 min 10,1 km/h (2 Bft)
12.11.2009 14:12 14,0 C 10,3 C 0,2 UV-I 0,5 C 64 % 91 % 14 % 1005,9 hPa 0,0 l/m 3,8 km/h (1 Bft) 0 min 10,1 km/h (2 Bft)
12.11.2009 14:14 14,0 C 10,4 C 0,3 UV-I 0,4 C 64 % 91 % 11 % 1006,0 hPa 0,0 l/m 4,1 km/h (1 Bft) 0 min 13,2 km/h (3 Bft)
12.11.2009 14:16 14,0 C 10,5 C 0,3 UV-I 0,4 C 65 % 91 % 11 % 1006,0 hPa 0,0 l/m 4,8 km/h (1 Bft) 0 min 14,0 km/h (3 Bft)
12.11.2009 14:18 13,9 C 10,5 C 0,3 UV-I 0,7 C 65 % 91 % 20 % 1006,0 hPa 0,0 l/m 4,6 km/h (1 Bft) 0 min 14,0 km/h (3 Bft)
12.11.2009 14:20 13,9 C 10,5 C 0,4 UV-I 1,1 C 65 % 91 % 31 % 1006,0 hPa 0,0 l/m 4,8 km/h (1 Bft) 0 min 6,5 km/h (2 Bft)
12.11.2009 14:22 13,9 C 10,6 C 0,4 UV-I 1,2 C 65 % 91 % 34 % 1006,0 hPa 0,0 l/m 4,3 km/h (1 Bft) 0 min 6,5 km/h (2 Bft)
12.11.2009 14:24 14,1 C 10,7 C 0,7 UV-I 1,4 C 65 % 91 % 40 % 1006,0 hPa 0,0 l/m 4,6 km/h (1 Bft) 0 min 4,1 km/h (1 Bft)
12.11.2009 14:26 14,1 C 10,7 C 0,7 UV-I 1,4 C 65 % 91 % 40 % 1006,0 hPa 0,0 l/m 4,6 km/h (1 Bft) 0 min 7,9 km/h (2 Bft)
12.11.2009 14:28 14,1 C 10,7 C 0,7 UV-I 1,3 C 65 % 90 % 37 % 1006,0 hPa 0,0 l/m 4,3 km/h (1 Bft) 0 min 10,3 km/h (2 Bft)
12.11.2009 14:30 14,1 C 10,7 C 0,4 UV-I 1,4 C 65 % 91 % 40 % 1006,0 hPa 0,0 l/m 4,8 km/h (1 Bft) 0 min 10,3 km/h (2 Bft)
12.11.2009 14:32 14,1 C 10,7 C 0,4 UV-I 1,5 C 65 % 90 % 43 % 1006,0 hPa 0,0 l/m 4,6 km/h (1 Bft) 0 min 5,1 km/h (1 Bft)
12.11.2009 14:34 14,2 C 10,8 C 0,7 UV-I 1,3 C 65 % 90 % 37 % 1006,4 hPa 0,0 l/m 5,1 km/h (1 Bft) 0 min 5,8 km/h (2 Bft)
12.11.2009 14:36 14,2 C 10,8 C 0,7 UV-I 1,2 C 65 % 90 % 34 % 1006,4 hPa 0,0 l/m 4,6 km/h (1 Bft) 0 min 5,8 km/h (2 Bft)
12.11.2009 14:38 14,2 C 10,8 C 0,7 UV-I 1,0 C 65 % 90 % 29 % 1006,4 hPa 0,0 l/m 4,1 km/h (1 Bft) 0 min 5,5 km/h (1 Bft)
12.11.2009 14:40 14,2 C 10,8 C 0,7 UV-I 0,8 C 65 % 90 % 23 % 1006,4 hPa 0,0 l/m 3,8 km/h (1 Bft) 0 min 6,0 km/h (2 Bft)
12.11.2009 14:42 14,2 C 10,9 C 0,7 UV-I 0,6 C 65 % 90 % 17 % 1006,4 hPa 0,0 l/m 4,1 km/h (1 Bft) 0 min 8,9 km/h (2 Bft)
12.11.2009 14:44 14,2 C 10,8 C 0,9 UV-I 0,6 C 65 % 90 % 17 % 1006,4 hPa 0,0 l/m 4,3 km/h (1 Bft) 0 min 8,9 km/h (2 Bft)
12.11.2009 14:46 14,2 C 10,8 C 0,9 UV-I 0,5 C 65 % 90 % 14 % 1006,4 hPa 0,0 l/m 4,3 km/h (1 Bft) 0 min 7,2 km/h (2 Bft)
12.11.2009 14:48 14,2 C 10,9 C 0,9 UV-I 0,4 C 65 % 90 % 11 % 1006,4 hPa 0,0 l/m 4,6 km/h (1 Bft) 0 min 7,2 km/h (2 Bft)
12.11.2009 14:50 14,1 C 10,8 C 1,0 UV-I 0,5 C 65 % 89 % 14 % 1006,4 hPa 0,0 l/m 4,3 km/h (1 Bft) 0 min 5,8 km/h (2 Bft)
12.11.2009 14:52 14,1 C 10,8 C 1,0 UV-I 0,5 C 65 % 89 % 14 % 1006,4 hPa 0,0 l/m 3,8 km/h (1 Bft) 0 min 6,5 km/h (2 Bft)
12.11.2009 14:54 14,1 C 10,8 C 1,1 UV-I 0,8 C 65 % 89 % 23 % 1006,3 hPa 0,0 l/m 3,8 km/h (1 Bft) 0 min 6,5 km/h (2 Bft)
12.11.2009 14:56 14,3 C 10,9 C 1,1 UV-I 1,0 C 65 % 89 % 29 % 1006,3 hPa 0,0 l/m 3,8 km/h (1 Bft) 0 min 5,8 km/h (2 Bft)
12.11.2009 14:58 14,3 C 10,9 C 1,1 UV-I 1,0 C 65 % 89 % 29 % 1006,3 hPa 0,0 l/m 4,1 km/h (1 Bft) 0 min 5,8 km/h (2 Bft)
12.11.2009 15:00 14,3 C 10,9 C 0,9 UV-I 1,0 C 65 % 89 % 29 % 1006,3 hPa 0,0 l/m 4,1 km/h (1 Bft) 0 min 9,1 km/h (2 Bft)
12.11.2009 15:02 14,2 C 11,1 C 0,9 UV-I 0,5 C 65 % 89 % 14 % 1006,3 hPa 0,0 l/m 4,6 km/h (1 Bft) 0 min 9,1 km/h (2 Bft)
12.11.2009 15:04 14,4 C 11,1 C 0,7 UV-I 0,5 C 65 % 89 % 14 % 1006,3 hPa 0,0 l/m 4,6 km/h (1 Bft) 0 min 4,6 km/h (1 Bft)
12.11.2009 15:06 14,4 C 11,1 C 0,7 UV-I 0,3 C 65 % 89 % 9 % 1006,3 hPa 0,0 l/m 4,3 km/h (1 Bft) 0 min 4,6 km/h (1 Bft)
12.11.2009 15:08 14,2 C 11,0 C 0,7 UV-I 0,4 C 65 % 89 % 11 % 1006,3 hPa 0,0 l/m 4,1 km/h (1 Bft) 0 min 11,3 km/h (2 Bft)
12.11.2009 15:10 14,4 C 11,0 C 0,6 UV-I 0,3 C 65 % 89 % 9 % 1006,3 hPa 0,0 l/m 4,6 km/h (1 Bft) 0 min 11,3 km/h (2 Bft)
12.11.2009 15:12 14,4 C 11,1 C 0,6 UV-I 0,1 C 65 % 89 % 3 % 1006,3 hPa 0,0 l/m 4,6 km/h (1 Bft) 0 min 7,2 km/h (2 Bft)
12.11.2009 15:14 14,4 C 11,0 C 0,7 UV-I 0,2 C 65 % 89 % 6 % 1006,4 hPa 0,0 l/m 4,8 km/h (1 Bft) 0 min 6,5 km/h (2 Bft)
12.11.2009 15:16 14,4 C 11,1 C 0,7 UV-I 0,2 C 65 % 89 % 6 % 1006,4 hPa 0,0 l/m 5,5 km/h (1 Bft) 0 min 7,2 km/h (2 Bft)
12.11.2009 15:18 14,4 C 11,1 C 0,7 UV-I 0,3 C 65 % 89 % 9 % 1006,4 hPa 0,0 l/m 6,3 km/h (2 Bft) 0 min 7,2 km/h (2 Bft)
12.11.2009 15:20 14,4 C 11,0 C 0,4 UV-I 0,4 C 65 % 88 % 11 % 1006,4 hPa 0,0 l/m 6,0 km/h (2 Bft) 0 min 8,7 km/h (2 Bft)
12.11.2009 15:22 14,4 C 11,1 C 0,4 UV-I 0,3 C 65 % 89 % 9 % 1006,4 hPa 0,0 l/m 5,3 km/h (1 Bft) 0 min 8,7 km/h (2 Bft)
12.11.2009 15:24 14,4 C 11,1 C 0,2 UV-I 0,1 C 65 % 89 % 3 % 1006,4 hPa 0,0 l/m 4,6 km/h (1 Bft) 0 min 2,6 km/h (1 Bft)
12.11.2009 15:26 14,4 C 10,9 C 0,2 UV-I 0,2 C 64 % 89 % 6 % 1006,4 hPa 0,0 l/m 4,6 km/h (1 Bft) 0 min 7,9 km/h (2 Bft)
12.11.2009 15:28 14,4 C 11,0 C 0,2 UV-I 0,0 C 64 % 88 % 0 % 1006,4 hPa 0,0 l/m 4,6 km/h (1 Bft) 0 min 15,9 km/h (3 Bft)
12.11.2009 15:30 14,4 C 11,0 C 0,1 UV-I 0,0 C 64 % 88 % 0 % 1006,4 hPa 0,0 l/m 4,8 km/h (1 Bft) 0 min 15,9 km/h (3 Bft)
12.11.2009 15:32 14,4 C 10,9 C 0,1 UV-I 0,0 C 64 % 88 % 0 % 1006,4 hPa 0,0 l/m 5,1 km/h (1 Bft) 0 min 7,2 km/h (2 Bft)
12.11.2009 15:34 14,2 C 10,9 C 0,0 UV-I 0,0 C 64 % 88 % 0 % 1006,6 hPa 0,0 l/m 5,3 km/h (1 Bft) 0 min 4,8 km/h (1 Bft)
12.11.2009 15:36 14,4 C 11,0 C 0,0 UV-I 0,0 C 64 % 88 % 0 % 1006,6 hPa 0,0 l/m 5,3 km/h (1 Bft) 0 min 4,1 km/h (1 Bft)
12.11.2009 15:38 14,4 C 10,9 C 0,0 UV-I 0,0 C 64 % 88 % 0 % 1006,6 hPa 0,0 l/m 4,8 km/h (1 Bft) 0 min 5,3 km/h (1 Bft)
12.11.2009 15:40 14,4 C 10,9 C 0,0 UV-I 0,0 C 64 % 88 % 0 % 1006,6 hPa 0,0 l/m 4,3 km/h (1 Bft) 0 min 15,4 km/h (3 Bft)
12.11.2009 15:42 14,4 C 11,0 C 0,0 UV-I 0,0 C 64 % 88 % 0 % 1006,6 hPa 0,0 l/m 4,3 km/h (1 Bft) 0 min 15,4 km/h (3 Bft)
12.11.2009 15:44 14,2 C 10,9 C 0,0 UV-I 0,0 C 64 % 89 % 0 % 1006,6 hPa 0,0 l/m 3,8 km/h (1 Bft) 0 min 5,5 km/h (1 Bft)
12.11.2009 15:46 14,2 C 10,9 C 0,0 UV-I 0,0 C 64 % 89 % 0 % 1006,6 hPa 0,0 l/m 3,8 km/h (1 Bft) 0 min 6,3 km/h (2 Bft)
12.11.2009 15:48 14,2 C 10,9 C 0,0 UV-I 0,0 C 64 % 89 % 0 % 1006,6 hPa 0,0 l/m 4,6 km/h (1 Bft) 0 min 11,3 km/h (2 Bft)
12.11.2009 15:50 14,2 C 10,8 C 0,0 UV-I 0,0 C 64 % 89 % 0 % 1006,6 hPa 0,0 l/m 4,8 km/h (1 Bft) 0 min 11,3 km/h (2 Bft)
12.11.2009 15:52 14,3 C 10,9 C 0,0 UV-I 0,0 C 65 % 89 % 0 % 1006,6 hPa 0,0 l/m 4,1 km/h (1 Bft) 0 min 6,5 km/h (2 Bft)
12.11.2009 15:54 14,3 C 10,9 C 0,0 UV-I 0,0 C 65 % 89 % 0 % 1006,9 hPa 0,0 l/m 4,3 km/h (1 Bft) 0 min 5,3 km/h (1 Bft)
12.11.2009 15:56 14,3 C 10,9 C 0,0 UV-I 0,0 C 65 % 89 % 0 % 1006,9 hPa 0,0 l/m 5,3 km/h (1 Bft) 0 min 17,6 km/h (3 Bft)
12.11.2009 15:58 14,3 C 10,8 C 0,0 UV-I 0,0 C 65 % 89 % 0 % 1006,9 hPa 0,0 l/m 5,1 km/h (1 Bft) 0 min 17,6 km/h (3 Bft)
12.11.2009 16:00 14,3 C 10,8 C 0,0 UV-I 0,0 C 65 % 89 % 0 % 1006,9 hPa 0,0 l/m 4,3 km/h (1 Bft) 0 min 4,1 km/h (1 Bft)
12.11.2009 16:02 14,3 C 10,9 C 0,0 UV-I 0,0 C 65 % 88 % 0 % 1006,9 hPa 0,0 l/m 5,1 km/h (1 Bft) 0 min 8,2 km/h (2 Bft)
12.11.2009 16:04 14,3 C 10,8 C 0,0 UV-I 0,0 C 65 % 88 % 0 % 1006,9 hPa 0,0 l/m 5,3 km/h (1 Bft) 0 min 8,7 km/h (2 Bft)
12.11.2009 16:06 14,3 C 10,8 C 0,0 UV-I 0,0 C 65 % 89 % 0 % 1006,9 hPa 0,0 l/m 5,1 km/h (1 Bft) 0 min 8,7 km/h (2 Bft)
12.11.2009 16:08 14,3 C 10,9 C 0,0 UV-I 0,0 C 65 % 89 % 0 % 1006,9 hPa 0,0 l/m 4,8 km/h (1 Bft) 0 min 5,8 km/h (2 Bft)
12.11.2009 16:10 14,3 C 10,8 C 0,0 UV-I 0,0 C 65 % 89 % 0 % 1006,9 hPa 0,0 l/m 5,3 km/h (1 Bft) 0 min 5,8 km/h (2 Bft)
12.11.2009 16:12 14,3 C 10,8 C 0,0 UV-I 0,0 C 65 % 89 % 0 % 1006,9 hPa 0,0 l/m 5,3 km/h (1 Bft) 0 min 6,0 km/h (2 Bft)
12.11.2009 16:14 14,3 C 10,8 C 0,0 UV-I 0,0 C 65 % 89 % 0 % 1006,9 hPa 0,0 l/m 5,1 km/h (1 Bft) 0 min 6,0 km/h (2 Bft)
12.11.2009 16:16 14,3 C 10,9 C 0,0 UV-I 0,0 C 65 % 89 % 0 % 1006,9 hPa 0,0 l/m 4,6 km/h (1 Bft) 0 min 6,0 km/h (2 Bft)
12.11.2009 16:18 14,1 C 10,8 C 0,0 UV-I 0,0 C 65 % 89 % 0 % 1006,9 hPa 0,0 l/m 5,1 km/h (1 Bft) 0 min 6,0 km/h (2 Bft)
12.11.2009 16:20 14,3 C 10,9 C 0,0 UV-I 0,0 C 65 % 89 % 0 % 1006,9 hPa 0,0 l/m 5,1 km/h (1 Bft) 0 min 10,1 km/h (2 Bft)
12.11.2009 16:22 14,1 C 10,8 C 0,0 UV-I 0,0 C 65 % 89 % 0 % 1006,9 hPa 0,0 l/m 4,8 km/h (1 Bft) 0 min 10,1 km/h (2 Bft)
12.11.2009 16:24 14,1 C 10,9 C 0,0 UV-I 0,0 C 65 % 89 % 0 % 1006,9 hPa 0,0 l/m 4,6 km/h (1 Bft) 0 min 7,5 km/h (2 Bft)
12.11.2009 16:26 14,1 C 10,8 C 0,0 UV-I 0,0 C 65 % 89 % 0 % 1006,9 hPa 0,0 l/m 4,1 km/h (1 Bft) 0 min 7,5 km/h (2 Bft)
12.11.2009 16:28 14,1 C 10,7 C 0,0 UV-I 0,0 C 65 % 89 % 0 % 1006,9 hPa 0,0 l/m 4,1 km/h (1 Bft) 0 min 8,7 km/h (2 Bft)
12.11.2009 16:30 14,1 C 10,7 C 0,0 UV-I 0,0 C 65 % 89 % 0 % 1006,9 hPa 0,0 l/m 3,6 km/h (1 Bft) 0 min 0,0 km/h (0 Bft)
12.11.2009 16:34 14,2 C 10,7 C 0,0 UV-I 0,0 C 65 % 89 % 0 % 1007,0 hPa 0,0 l/m 3,1 km/h (1 Bft) 0 min 5,1 km/h (1 Bft)
12.11.2009 16:36 14,2 C 10,7 C 0,0 UV-I 0,0 C 65 % 89 % 0 % 1007,0 hPa 0,0 l/m 3,1 km/h (1 Bft) 0 min 5,3 km/h (1 Bft)
12.11.2009 16:38 14,2 C 10,7 C 0,0 UV-I 0,0 C 65 % 89 % 0 % 1007,0 hPa 0,0 l/m 3,4 km/h (1 Bft) 0 min 5,3 km/h (1 Bft)
12.11.2009 16:40 14,2 C 10,7 C 0,0 UV-I 0,0 C 65 % 89 % 0 % 1007,0 hPa 0,0 l/m 2,6 km/h (1 Bft) 0 min 4,8 km/h (1 Bft)
12.11.2009 16:42 14,2 C 10,6 C 0,0 UV-I 0,0 C 65 % 89 % 0 % 1007,0 hPa 0,0 l/m 2,6 km/h (1 Bft) 0 min 2,4 km/h (1 Bft)
12.11.2009 16:44 14,2 C 10,7 C 0,0 UV-I 0,0 C 65 % 89 % 0 % 1007,0 hPa 0,0 l/m 2,6 km/h (1 Bft) 0 min 4,8 km/h (1 Bft)
12.11.2009 16:46 14,2 C 10,7 C 0,0 UV-I 0,0 C 65 % 89 % 0 % 1007,0 hPa 0,0 l/m 3,1 km/h (1 Bft) 0 min 6,3 km/h (2 Bft)
12.11.2009 16:48 14,2 C 10,7 C 0,0 UV-I 0,0 C 65 % 89 % 0 % 1007,0 hPa 0,0 l/m 3,1 km/h (1 Bft) 0 min 6,3 km/h (2 Bft)
12.11.2009 16:50 14,2 C 10,7 C 0,0 UV-I 0,0 C 65 % 89 % 0 % 1007,0 hPa 0,0 l/m 2,9 km/h (1 Bft) 0 min 3,8 km/h (1 Bft)
12.11.2009 16:52 14,1 C 10,7 C 0,0 UV-I 0,0 C 65 % 89 % 0 % 1007,0 hPa 0,0 l/m 3,4 km/h (1 Bft) 0 min 6,0 km/h (2 Bft)
12.11.2009 16:54 14,1 C 10,7 C 0,0 UV-I 0,0 C 65 % 89 % 0 % 1006,9 hPa 0,0 l/m 3,8 km/h (1 Bft) 0 min 6,0 km/h (2 Bft)
12.11.2009 16:56 14,2 C 10,6 C 0,0 UV-I 0,0 C 65 % 89 % 0 % 1006,9 hPa 0,0 l/m 3,6 km/h (1 Bft) 0 min 5,5 km/h (1 Bft)
12.11.2009 16:58 14,1 C 10,7 C 0,0 UV-I 0,0 C 65 % 89 % 0 % 1006,9 hPa 0,0 l/m 3,6 km/h (1 Bft) 0 min 5,5 km/h (1 Bft)
12.11.2009 17:00 14,1 C 10,6 C 0,0 UV-I 0,0 C 65 % 89 % 0 % 1006,9 hPa 0,0 l/m 3,6 km/h (1 Bft) 0 min 3,4 km/h (1 Bft)
12.11.2009 17:02 14,1 C 10,6 C 0,0 UV-I 0,0 C 65 % 89 % 0 % 1006,9 hPa 0,0 l/m 4,3 km/h (1 Bft) 0 min 6,5 km/h (2 Bft)
12.11.2009 17:04 14,1 C 10,6 C 0,0 UV-I 0,0 C 65 % 89 % 0 % 1006,9 hPa 0,0 l/m 4,1 km/h (1 Bft) 0 min 6,5 km/h (2 Bft)
12.11.2009 17:10 14,1 C 10,6 C 0,0 UV-I 0,0 C 66 % 89 % 0 % 1006,9 hPa 0,0 l/m 3,8 km/h (1 Bft) 0 min 10,6 km/h (2 Bft)
12.11.2009 17:12 14,1 C 10,6 C 0,0 UV-I 0,0 C 65 % 89 % 0 % 1006,9 hPa 0,0 l/m 4,3 km/h (1 Bft) 0 min 5,8 km/h (2 Bft)
12.11.2009 17:14 14,1 C 10,6 C 0,0 UV-I 0,0 C 66 % 89 % 0 % 1007,2 hPa 0,0 l/m 3,8 km/h (1 Bft) 0 min 5,8 km/h (2 Bft)
12.11.2009 17:16 14,1 C 10,6 C 0,0 UV-I 0,0 C 66 % 89 % 0 % 1007,2 hPa 0,0 l/m 3,6 km/h (1 Bft) 0 min 5,1 km/h (1 Bft)
12.11.2009 17:18 14,1 C 10,5 C 0,0 UV-I 0,0 C 66 % 89 % 0 % 1007,2 hPa 0,0 l/m 3,8 km/h (1 Bft) 0 min 4,6 km/h (1 Bft)
12.11.2009 17:20 14,1 C 10,6 C 0,0 UV-I 0,0 C 66 % 89 % 0 % 1007,2 hPa 0,0 l/m 3,1 km/h (1 Bft) 0 min 3,8 km/h (1 Bft)
12.11.2009 17:22 13,9 C 10,6 C 0,0 UV-I 0,0 C 66 % 89 % 0 % 1007,2 hPa 0,0 l/m 3,4 km/h (1 Bft) 0 min 4,1 km/h (1 Bft)
12.11.2009 17:24 14,1 C 10,5 C 0,0 UV-I 0,0 C 66 % 89 % 0 % 1007,2 hPa 0,0 l/m 2,6 km/h (1 Bft) 0 min 4,1 km/h (1 Bft)
12.11.2009 17:26 13,9 C 10,5 C 0,0 UV-I 0,0 C 66 % 89 % 0 % 1007,2 hPa 0,0 l/m 2,6 km/h (1 Bft) 0 min 3,8 km/h (1 Bft)
12.11.2009 17:28 13,9 C 10,5 C 0,0 UV-I 0,0 C 66 % 89 % 0 % 1007,2 hPa 0,0 l/m 2,6 km/h (1 Bft) 0 min 5,8 km/h (2 Bft)
12.11.2009 17:30 13,9 C 10,5 C 0,0 UV-I 0,0 C 66 % 89 % 0 % 1007,2 hPa 0,0 l/m 3,1 km/h (1 Bft) 0 min 6,5 km/h (2 Bft)
12.11.2009 17:32 13,9 C 10,5 C 0,0 UV-I 0,0 C 66 % 89 % 0 % 1007,2 hPa 0,0 l/m 3,6 km/h (1 Bft) 0 min 7,0 km/h (2 Bft)
12.11.2009 17:34 13,9 C 10,5 C 0,0 UV-I 0,0 C 66 % 89 % 0 % 1007,6 hPa 0,0 l/m 3,6 km/h (1 Bft) 0 min 7,0 km/h (2 Bft)
12.11.2009 17:36 13,9 C 10,5 C 0,0 UV-I 0,0 C 66 % 89 % 0 % 1007,6 hPa 0,0 l/m 4,1 km/h (1 Bft) 0 min 5,5 km/h (1 Bft)
12.11.2009 17:38 13,9 C 10,5 C 0,0 UV-I 0,0 C 66 % 89 % 0 % 1007,6 hPa 0,0 l/m 4,1 km/h (1 Bft) 0 min 5,5 km/h (1 Bft)
12.11.2009 17:40 13,9 C 10,5 C 0,0 UV-I 0,0 C 66 % 89 % 0 % 1007,6 hPa 0,0 l/m 3,4 km/h (1 Bft) 0 min 6,0 km/h (2 Bft)
12.11.2009 17:42 13,9 C 10,5 C 0,0 UV-I 0,0 C 66 % 89 % 0 % 1007,6 hPa 0,0 l/m 3,8 km/h (1 Bft) 0 min 15,9 km/h (3 Bft)
12.11.2009 17:46 13,9 C 10,5 C 0,0 UV-I 0,0 C 66 % 89 % 0 % 1007,6 hPa 0,0 l/m 3,8 km/h (1 Bft) 0 min 15,9 km/h (3 Bft)
12.11.2009 17:48 13,9 C 10,5 C 0,0 UV-I 0,0 C 66 % 89 % 0 % 1007,6 hPa 0,0 l/m 4,3 km/h (1 Bft) 0 min 7,2 km/h (2 Bft)
12.11.2009 17:52 13,9 C 10,5 C 0,0 UV-I 0,0 C 66 % 89 % 0 % 1007,6 hPa 0,0 l/m 4,6 km/h (1 Bft) 0 min 7,2 km/h (2 Bft)
12.11.2009 17:54 13,9 C 10,5 C 0,0 UV-I 0,0 C 66 % 89 % 0 % 1007,8 hPa 0,0 l/m 3,6 km/h (1 Bft) 0 min 3,4 km/h (1 Bft)
12.11.2009 17:56 13,9 C 10,4 C 0,0 UV-I 0,0 C 66 % 89 % 0 % 1007,8 hPa 0,0 l/m 3,1 km/h (1 Bft) 0 min 3,4 km/h (1 Bft)
12.11.2009 17:58 13,9 C 10,4 C 0,0 UV-I 0,0 C 66 % 89 % 0 % 1007,8 hPa 0,0 l/m 3,4 km/h (1 Bft) 0 min 5,5 km/h (1 Bft)
12.11.2009 18:00 13,9 C 10,4 C 0,0 UV-I 0,0 C 66 % 89 % 0 % 1007,8 hPa 0,0 l/m 2,9 km/h (1 Bft) 0 min 7,9 km/h (2 Bft)
12.11.2009 18:02 14,0 C 10,4 C 0,0 UV-I 0,0 C 66 % 89 % 0 % 1007,8 hPa 0,0 l/m 3,1 km/h (1 Bft) 0 min 7,9 km/h (2 Bft)
12.11.2009 18:04 14,0 C 10,4 C 0,0 UV-I 0,0 C 66 % 89 % 0 % 1007,8 hPa 0,0 l/m 3,6 km/h (1 Bft) 0 min 4,8 km/h (1 Bft)
12.11.2009 18:06 14,0 C 10,4 C 0,0 UV-I 0,0 C 66 % 89 % 0 % 1007,8 hPa 0,0 l/m 3,8 km/h (1 Bft) 0 min 5,1 km/h (1 Bft)
12.11.2009 18:08 14,0 C 10,4 C 0,0 UV-I 0,0 C 66 % 89 % 0 % 1007,8 hPa 0,0 l/m 4,1 km/h (1 Bft) 0 min 9,1 km/h (2 Bft)
12.11.2009 18:10 14,0 C 10,4 C 0,0 UV-I 0,0 C 66 % 89 % 0 % 1007,8 hPa 0,0 l/m 3,6 km/h (1 Bft) 0 min 9,1 km/h (2 Bft)
12.11.2009 18:12 14,0 C 10,4 C 0,0 UV-I 0,0 C 66 % 89 % 0 % 1007,8 hPa 0,0 l/m 3,6 km/h (1 Bft) 0 min 9,1 km/h (2 Bft)
12.11.2009 18:14 14,0 C 10,4 C 0,0 UV-I 0,0 C 66 % 89 % 0 % 1007,6 hPa 0,0 l/m 3,8 km/h (1 Bft) 0 min 9,1 km/h (2 Bft)
12.11.2009 18:16 14,0 C 10,4 C 0,0 UV-I 0,0 C 66 % 89 % 0 % 1007,6 hPa 0,0 l/m 3,8 km/h (1 Bft) 0 min 5,5 km/h (1 Bft)
12.11.2009 18:18 14,0 C 10,5 C 0,0 UV-I 0,0 C 66 % 89 % 0 % 1007,6 hPa 0,0 l/m 3,6 km/h (1 Bft) 0 min 6,3 km/h (2 Bft)
12.11.2009 18:20 14,0 C 10,5 C 0,0 UV-I 0,0 C 66 % 89 % 0 % 1007,6 hPa 0,0 l/m 3,8 km/h (1 Bft) 0 min 8,9 km/h (2 Bft)
12.11.2009 18:22 14,0 C 10,4 C 0,0 UV-I 0,0 C 66 % 88 % 0 % 1007,6 hPa 0,0 l/m 4,3 km/h (1 Bft) 0 min 13,0 km/h (3 Bft)
12.11.2009 18:24 14,0 C 10,4 C 0,0 UV-I 0,0 C 66 % 88 % 0 % 1007,6 hPa 0,0 l/m 4,6 km/h (1 Bft) 0 min 13,0 km/h (3 Bft)
12.11.2009 18:26 14,0 C 10,4 C 0,0 UV-I 0,0 C 66 % 88 % 0 % 1007,6 hPa 0,0 l/m 5,3 km/h (1 Bft) 0 min 10,3 km/h (2 Bft)
12.11.2009 18:28 14,0 C 10,4 C 0,0 UV-I 0,0 C 66 % 88 % 0 % 1007,6 hPa 0,0 l/m 5,5 km/h (1 Bft) 0 min 12,3 km/h (3 Bft)
12.11.2009 18:30 14,0 C 10,5 C 0,0 UV-I 0,0 C 66 % 89 % 0 % 1007,6 hPa 0,0 l/m 5,5 km/h (1 Bft) 0 min 12,3 km/h (3 Bft)
12.11.2009 18:32 14,0 C 10,4 C 0,0 UV-I 0,0 C 66 % 88 % 0 % 1007,6 hPa 0,0 l/m 5,1 km/h (1 Bft) 0 min 3,8 km/h (1 Bft)
12.11.2009 18:34 14,0 C 10,4 C 0,0 UV-I 0,0 C 66 % 88 % 0 % 1007,4 hPa 0,0 l/m 4,6 km/h (1 Bft) 0 min 5,8 km/h (2 Bft)
12.11.2009 18:36 14,0 C 10,4 C 0,0 UV-I 0,0 C 66 % 88 % 0 % 1007,4 hPa 0,0 l/m 4,3 km/h (1 Bft) 0 min 5,8 km/h (2 Bft)
12.11.2009 18:38 14,0 C 10,4 C 0,0 UV-I 0,0 C 66 % 88 % 0 % 1007,4 hPa 0,0 l/m 4,1 km/h (1 Bft) 0 min 15,4 km/h (3 Bft)
12.11.2009 18:40 14,0 C 10,3 C 0,0 UV-I 0,0 C 66 % 88 % 0 % 1007,4 hPa 0,0 l/m 3,6 km/h (1 Bft) 0 min 15,4 km/h (3 Bft)
12.11.2009 18:42 14,0 C 10,3 C 0,0 UV-I 0,0 C 66 % 88 % 0 % 1007,4 hPa 0,0 l/m 3,4 km/h (1 Bft) 0 min 6,0 km/h (2 Bft)
12.11.2009 18:46 14,0 C 10,2 C 0,0 UV-I 0,0 C 66 % 88 % 0 % 1007,4 hPa 0,0 l/m 2,9 km/h (1 Bft) 0 min 5,5 km/h (1 Bft)
12.11.2009 18:48 14,0 C 10,3 C 0,0 UV-I 0,0 C 65 % 88 % 0 % 1007,4 hPa 0,0 l/m 2,9 km/h (1 Bft) 0 min 5,5 km/h (1 Bft)
12.11.2009 18:50 14,0 C 10,3 C 0,0 UV-I 0,0 C 66 % 88 % 0 % 1007,4 hPa 0,0 l/m 2,6 km/h (1 Bft) 0 min 5,5 km/h (1 Bft)
12.11.2009 18:52 14,0 C 10,2 C 0,0 UV-I 0,0 C 65 % 88 % 0 % 1007,4 hPa 0,0 l/m 2,6 km/h (1 Bft) 0 min 5,1 km/h (1 Bft)
12.11.2009 18:54 14,0 C 10,1 C 0,0 UV-I 0,0 C 65 % 88 % 0 % 1007,8 hPa 0,0 l/m 2,4 km/h (1 Bft) 0 min 3,8 km/h (1 Bft)
12.11.2009 18:56 14,0 C 10,1 C 0,0 UV-I 0,0 C 65 % 88 % 0 % 1007,8 hPa 0,0 l/m 2,4 km/h (1 Bft) 0 min 8,2 km/h (2 Bft)
12.11.2009 18:58 14,0 C 10,1 C 0,0 UV-I 0,0 C 65 % 88 % 0 % 1007,8 hPa 0,0 l/m 2,2 km/h (1 Bft) 0 min 8,2 km/h (2 Bft)
12.11.2009 19:00 14,0 C 10,0 C 0,0 UV-I 0,0 C 65 % 88 % 0 % 1007,8 hPa 0,0 l/m 2,2 km/h (1 Bft) 0 min 4,1 km/h (1 Bft)
12.11.2009 19:02 13,8 C 10,0 C 0,0 UV-I 0,0 C 65 % 88 % 0 % 1007,8 hPa 0,0 l/m 1,9 km/h (1 Bft) 0 min 3,1 km/h (1 Bft)
12.11.2009 19:04 14,0 C 10,0 C 0,0 UV-I 0,0 C 65 % 88 % 0 % 1007,8 hPa 0,0 l/m 2,2 km/h (1 Bft) 0 min 4,6 km/h (1 Bft)
12.11.2009 19:06 14,0 C 10,0 C 0,0 UV-I 0,0 C 65 % 88 % 0 % 1007,8 hPa 0,0 l/m 2,4 km/h (1 Bft) 0 min 4,6 km/h (1 Bft)
12.11.2009 19:08 14,0 C 10,0 C 0,0 UV-I 0,0 C 65 % 88 % 0 % 1007,8 hPa 0,0 l/m 1,9 km/h (1 Bft) 0 min 3,4 km/h (1 Bft)
12.11.2009 19:12 14,0 C 10,0 C 0,0 UV-I 0,0 C 65 % 88 % 0 % 1007,8 hPa 0,0 l/m 1,4 km/h (1 Bft) 0 min 3,1 km/h (1 Bft)
12.11.2009 19:14 14,0 C 10,1 C 0,0 UV-I 0,0 C 65 % 88 % 0 % 1007,9 hPa 0,0 l/m 1,4 km/h (1 Bft) 0 min 3,1 km/h (1 Bft)
12.11.2009 19:16 14,0 C 10,0 C 0,0 UV-I 0,0 C 65 % 88 % 0 % 1007,9 hPa 0,0 l/m 1,2 km/h (1 Bft) 0 min 0,0 km/h (0 Bft)
12.11.2009 19:18 14,0 C 10,0 C 0,0 UV-I 0,0 C 65 % 88 % 0 % 1007,9 hPa 0,0 l/m 1,0 km/h (0 Bft) 0 min 2,6 km/h (1 Bft)
12.11.2009 19:20 14,0 C 10,0 C 0,0 UV-I 0,0 C 65 % 88 % 0 % 1007,9 hPa 0,0 l/m 1,2 km/h (1 Bft) 0 min 4,1 km/h (1 Bft)
12.11.2009 19:22 14,0 C 10,0 C 0,0 UV-I 0,0 C 65 % 88 % 0 % 1007,9 hPa 0,0 l/m 1,2 km/h (1 Bft) 0 min 0,0 km/h (0 Bft)
12.11.2009 19:24 14,0 C 10,0 C 0,0 UV-I 0,0 C 65 % 88 % 0 % 1007,9 hPa 0,0 l/m 1,7 km/h (1 Bft) 0 min 4,3 km/h (1 Bft)
12.11.2009 19:26 13,9 C 9,9 C 0,0 UV-I 0,0 C 65 % 88 % 0 % 1007,9 hPa 0,0 l/m 1,9 km/h (1 Bft) 0 min 0,0 km/h (0 Bft)
12.11.2009 19:28 13,9 C 9,9 C 0,0 UV-I 0,0 C 65 % 88 % 0 % 1007,9 hPa 0,0 l/m 2,4 km/h (1 Bft) 0 min 8,4 km/h (2 Bft)
12.11.2009 19:30 14,0 C 9,9 C 0,0 UV-I 0,0 C 65 % 88 % 0 % 1007,9 hPa 0,0 l/m 2,6 km/h (1 Bft) 0 min 8,4 km/h (2 Bft)
12.11.2009 19:32 13,9 C 9,9 C 0,0 UV-I 0,0 C 65 % 88 % 0 % 1007,9 hPa 0,0 l/m 2,6 km/h (1 Bft) 0 min 6,0 km/h (2 Bft)
12.11.2009 19:34 13,9 C 9,9 C 0,0 UV-I 0,0 C 65 % 88 % 0 % 1008,0 hPa 0,0 l/m 2,9 km/h (1 Bft) 0 min 3,4 km/h (1 Bft)
12.11.2009 19:36 13,9 C 9,9 C 0,0 UV-I 0,0 C 65 % 88 % 0 % 1008,0 hPa 0,0 l/m 3,1 km/h (1 Bft) 0 min 5,8 km/h (2 Bft)
12.11.2009 19:38 13,9 C 9,9 C 0,0 UV-I 0,0 C 65 % 88 % 0 % 1008,0 hPa 0,0 l/m 3,4 km/h (1 Bft) 0 min 5,8 km/h (2 Bft)
12.11.2009 19:40 14,1 C 9,8 C 0,0 UV-I 0,0 C 65 % 88 % 0 % 1008,0 hPa 0,0 l/m 3,1 km/h (1 Bft) 0 min 0,0 km/h (0 Bft)
12.11.2009 19:42 14,1 C 9,8 C 0,0 UV-I 0,0 C 65 % 89 % 0 % 1008,0 hPa 0,0 l/m 2,6 km/h (1 Bft) 0 min 3,4 km/h (1 Bft)
12.11.2009 19:44 14,1 C 9,9 C 0,0 UV-I 0,0 C 65 % 89 % 0 % 1008,0 hPa 0,0 l/m 2,9 km/h (1 Bft) 0 min 7,5 km/h (2 Bft)
12.11.2009 19:46 14,1 C 9,9 C 0,0 UV-I 0,0 C 65 % 89 % 0 % 1008,0 hPa 0,0 l/m 2,9 km/h (1 Bft) 0 min 7,5 km/h (2 Bft)
12.11.2009 19:48 14,1 C 9,8 C 0,0 UV-I 0,0 C 65 % 89 % 0 % 1008,0 hPa 0,0 l/m 3,1 km/h (1 Bft) 0 min 5,8 km/h (2 Bft)
12.11.2009 19:50 14,1 C 9,8 C 0,0 UV-I 0,0 C 65 % 89 % 0 % 1008,0 hPa 0,0 l/m 3,1 km/h (1 Bft) 0 min 5,8 km/h (2 Bft)
12.11.2009 19:52 14,1 C 9,7 C 0,0 UV-I 0,0 C 65 % 89 % 0 % 1008,0 hPa 0,0 l/m 3,6 km/h (1 Bft) 0 min 5,1 km/h (1 Bft)
12.11.2009 19:54 14,1 C 9,7 C 0,0 UV-I 0,0 C 65 % 89 % 0 % 1008,0 hPa 0,0 l/m 4,1 km/h (1 Bft) 0 min 5,5 km/h (1 Bft)
12.11.2009 19:56 14,1 C 9,6 C 0,0 UV-I 0,0 C 65 % 89 % 0 % 1008,0 hPa 0,0 l/m 3,8 km/h (1 Bft) 0 min 8,7 km/h (2 Bft)
12.11.2009 19:58 14,1 C 9,7 C 0,0 UV-I 0,0 C 65 % 89 % 0 % 1008,0 hPa 0,0 l/m 4,3 km/h (1 Bft) 0 min 4,8 km/h (1 Bft)
12.11.2009 20:00 14,1 C 9,6 C 0,0 UV-I 0,0 C 65 % 89 % 0 % 1008,0 hPa 0,0 l/m 4,1 km/h (1 Bft) 0 min 9,4 km/h (2 Bft)
12.11.2009 20:02 14,1 C 9,6 C 0,0 UV-I 0,0 C 65 % 89 % 0 % 1008,0 hPa 0,0 l/m 4,3 km/h (1 Bft) 0 min 9,4 km/h (2 Bft)
12.11.2009 20:04 14,1 C 9,5 C 0,0 UV-I 0,0 C 65 % 89 % 0 % 1008,0 hPa 0,0 l/m 4,6 km/h (1 Bft) 0 min 7,9 km/h (2 Bft)
12.11.2009 20:06 14,1 C 9,5 C 0,0 UV-I 0,0 C 65 % 89 % 0 % 1008,0 hPa 0,0 l/m 4,6 km/h (1 Bft) 0 min 6,5 km/h (2 Bft)
12.11.2009 20:08 14,1 C 9,5 C 0,0 UV-I 0,0 C 65 % 89 % 0 % 1008,0 hPa 0,0 l/m 4,3 km/h (1 Bft) 0 min 5,5 km/h (1 Bft)
12.11.2009 20:10 14,1 C 9,5 C 0,0 UV-I 0,0 C 65 % 89 % 0 % 1008,0 hPa 0,0 l/m 4,3 km/h (1 Bft) 0 min 5,1 km/h (1 Bft)
12.11.2009 20:12 14,2 C 9,4 C 0,0 UV-I 0,0 C 65 % 89 % 0 % 1008,0 hPa 0,0 l/m 4,3 km/h (1 Bft) 0 min 5,1 km/h (1 Bft)
12.11.2009 20:16 14,2 C 9,5 C 0,0 UV-I 0,0 C 65 % 89 % 0 % 1008,2 hPa 0,0 l/m 3,8 km/h (1 Bft) 0 min 4,8 km/h (1 Bft)
12.11.2009 20:18 14,2 C 9,3 C 0,0 UV-I 0,0 C 65 % 89 % 0 % 1008,2 hPa 0,0 l/m 3,8 km/h (1 Bft) 0 min 6,3 km/h (2 Bft)
12.11.2009 20:20 14,1 C 9,3 C 0,0 UV-I 0,0 C 65 % 89 % 0 % 1008,2 hPa 0,0 l/m 4,1 km/h (1 Bft) 0 min 6,3 km/h (2 Bft)
12.11.2009 20:22 14,2 C 9,3 C 0,0 UV-I 0,0 C 65 % 89 % 0 % 1008,2 hPa 0,0 l/m 4,1 km/h (1 Bft) 0 min 7,2 km/h (2 Bft)
12.11.2009 20:24 14,1 C 9,3 C 0,0 UV-I 0,0 C 65 % 89 % 0 % 1008,2 hPa 0,0 l/m 4,3 km/h (1 Bft) 0 min 7,2 km/h (2 Bft)
12.11.2009 20:26 14,2 C 9,3 C 0,0 UV-I 0,0 C 64 % 89 % 0 % 1008,2 hPa 0,0 l/m 4,6 km/h (1 Bft) 0 min 8,4 km/h (2 Bft)
12.11.2009 20:28 14,2 C 9,2 C 0,0 UV-I 0,0 C 65 % 90 % 0 % 1008,2 hPa 0,0 l/m 4,6 km/h (1 Bft) 0 min 8,4 km/h (2 Bft)
12.11.2009 20:30 14,2 C 9,2 C 0,0 UV-I 0,0 C 64 % 90 % 0 % 1008,2 hPa 0,0 l/m 4,6 km/h (1 Bft) 0 min 5,1 km/h (1 Bft)
12.11.2009 20:38 14,2 C 9,1 C 0,0 UV-I 0,0 C 64 % 89 % 0 % 1008,0 hPa 0,0 l/m 3,6 km/h (1 Bft) 0 min 5,1 km/h (1 Bft)
12.11.2009 20:40 14,2 C 9,1 C 0,0 UV-I 0,0 C 64 % 89 % 0 % 1008,0 hPa 0,0 l/m 3,1 km/h (1 Bft) 0 min 6,7 km/h (2 Bft)
12.11.2009 20:42 14,2 C 9,0 C 0,0 UV-I 0,0 C 64 % 89 % 0 % 1008,0 hPa 0,0 l/m 2,6 km/h (1 Bft) 0 min 6,7 km/h (2 Bft)
12.11.2009 20:44 14,2 C 9,1 C 0,0 UV-I 0,0 C 64 % 90 % 0 % 1008,0 hPa 0,0 l/m 2,6 km/h (1 Bft) 0 min 3,6 km/h (1 Bft)
12.11.2009 20:46 14,2 C 9,0 C 0,0 UV-I 0,0 C 64 % 90 % 0 % 1008,0 hPa 0,0 l/m 2,4 km/h (1 Bft) 0 min 7,2 km/h (2 Bft)
12.11.2009 20:48 14,2 C 8,9 C 0,0 UV-I 0,0 C 64 % 90 % 0 % 1008,0 hPa 0,0 l/m 2,2 km/h (1 Bft) 0 min 7,2 km/h (2 Bft)
12.11.2009 20:50 14,2 C 8,9 C 0,0 UV-I 0,0 C 64 % 90 % 0 % 1008,0 hPa 0,0 l/m 2,6 km/h (1 Bft) 0 min 4,8 km/h (1 Bft)
12.11.2009 20:52 14,2 C 8,9 C 0,0 UV-I 0,0 C 64 % 90 % 0 % 1008,0 hPa 0,0 l/m 2,2 km/h (1 Bft) 0 min 4,8 km/h (1 Bft)
12.11.2009 20:54 14,2 C 8,9 C 0,0 UV-I 0,0 C 64 % 90 % 0 % 1007,8 hPa 0,0 l/m 2,2 km/h (1 Bft) 0 min 3,4 km/h (1 Bft)
12.11.2009 20:56 14,2 C 8,8 C 0,0 UV-I 0,0 C 64 % 90 % 0 % 1007,8 hPa 0,0 l/m 2,4 km/h (1 Bft) 0 min 5,5 km/h (1 Bft)
12.11.2009 20:58 14,2 C 8,9 C 0,0 UV-I 0,0 C 64 % 90 % 0 % 1007,8 hPa 0,0 l/m 1,9 km/h (1 Bft) 0 min 5,5 km/h (1 Bft)
12.11.2009 21:00 14,1 C 8,8 C 0,0 UV-I 0,0 C 64 % 90 % 0 % 1007,8 hPa 0,0 l/m 2,2 km/h (1 Bft) 0 min 6,0 km/h (2 Bft)
12.11.2009 21:02 14,1 C 8,8 C 0,0 UV-I 0,0 C 64 % 90 % 0 % 1007,8 hPa 0,0 l/m 1,9 km/h (1 Bft) 0 min 6,0 km/h (2 Bft)
12.11.2009 21:04 14,1 C 8,7 C 0,0 UV-I 0,0 C 64 % 89 % 0 % 1007,8 hPa 0,0 l/m 2,4 km/h (1 Bft) 0 min 3,8 km/h (1 Bft)
12.11.2009 21:06 14,1 C 8,7 C 0,0 UV-I 0,0 C 64 % 89 % 0 % 1007,8 hPa 0,0 l/m 2,2 km/h (1 Bft) 0 min 3,8 km/h (1 Bft)
12.11.2009 21:08 14,1 C 8,7 C 0,0 UV-I 0,0 C 64 % 89 % 0 % 1007,8 hPa 0,0 l/m 1,7 km/h (1 Bft) 0 min 0,0 km/h (0 Bft)
12.11.2009 21:10 14,1 C 8,6 C 0,0 UV-I 0,0 C 64 % 89 % 0 % 1007,8 hPa 0,0 l/m 1,4 km/h (1 Bft) 0 min 3,8 km/h (1 Bft)
12.11.2009 21:12 14,1 C 8,7 C 0,0 UV-I 0,0 C 64 % 89 % 0 % 1007,8 hPa 0,0 l/m 1,7 km/h (1 Bft) 0 min 6,0 km/h (2 Bft)
12.11.2009 21:14 14,1 C 8,7 C 0,0 UV-I 0,0 C 64 % 89 % 0 % 1007,9 hPa 0,0 l/m 1,7 km/h (1 Bft) 0 min 6,0 km/h (2 Bft)
12.11.2009 21:16 14,1 C 8,6 C 0,0 UV-I 0,0 C 64 % 89 % 0 % 1007,9 hPa 0,0 l/m 1,9 km/h (1 Bft) 0 min 6,7 km/h (2 Bft)
12.11.2009 21:18 14,1 C 8,6 C 0,0 UV-I 0,0 C 64 % 89 % 0 % 1007,9 hPa 0,0 l/m 2,4 km/h (1 Bft) 0 min 9,1 km/h (2 Bft)
12.11.2009 21:22 14,1 C 8,5 C 0,0 UV-I 0,0 C 63 % 90 % 0 % 1007,9 hPa 0,0 l/m 3,6 km/h (1 Bft) 0 min 9,1 km/h (2 Bft)
12.11.2009 21:24 14,1 C 8,5 C 0,0 UV-I 0,0 C 63 % 90 % 0 % 1007,9 hPa 0,0 l/m 3,4 km/h (1 Bft) 0 min 6,0 km/h (2 Bft)
12.11.2009 21:26 14,1 C 8,4 C 0,0 UV-I 0,0 C 63 % 90 % 0 % 1007,9 hPa 0,0 l/m 3,1 km/h (1 Bft) 0 min 2,6 km/h (1 Bft)
12.11.2009 21:28 14,1 C 8,4 C 0,0 UV-I 0,0 C 63 % 90 % 0 % 1007,9 hPa 0,0 l/m 3,1 km/h (1 Bft) 0 min 0,0 km/h (0 Bft)
12.11.2009 21:30 14,1 C 8,5 C 0,0 UV-I 0,0 C 63 % 90 % 0 % 1007,9 hPa 0,0 l/m 2,6 km/h (1 Bft) 0 min 2,9 km/h (1 Bft)
12.11.2009 21:32 14,1 C 8,4 C 0,0 UV-I 0,0 C 63 % 90 % 0 % 1007,9 hPa 0,0 l/m 2,4 km/h (1 Bft) 0 min 6,0 km/h (2 Bft)
12.11.2009 21:34 14,1 C 8,4 C 0,0 UV-I 0,0 C 63 % 90 % 0 % 1007,5 hPa 0,0 l/m 2,2 km/h (1 Bft) 0 min 6,0 km/h (2 Bft)
12.11.2009 21:36 14,1 C 8,4 C 0,0 UV-I 0,0 C 63 % 90 % 0 % 1007,5 hPa 0,0 l/m 2,4 km/h (1 Bft) 0 min 4,3 km/h (1 Bft)
12.11.2009 21:38 14,1 C 8,3 C 0,0 UV-I 0,0 C 63 % 90 % 0 % 1007,5 hPa 0,0 l/m 2,6 km/h (1 Bft) 0 min 4,6 km/h (1 Bft)
12.11.2009 21:40 13,9 C 8,3 C 0,0 UV-I 0,0 C 63 % 90 % 0 % 1007,5 hPa 0,0 l/m 2,6 km/h (1 Bft) 0 min 4,6 km/h (1 Bft)
12.11.2009 21:42 13,9 C 8,3 C 0,0 UV-I 0,0 C 63 % 90 % 0 % 1007,5 hPa 0,0 l/m 2,4 km/h (1 Bft) 0 min 6,0 km/h (2 Bft)
12.11.2009 21:44 14,1 C 8,2 C 0,0 UV-I 0,0 C 63 % 90 % 0 % 1007,5 hPa 0,0 l/m 2,4 km/h (1 Bft) 0 min 9,1 km/h (2 Bft)
12.11.2009 21:46 13,9 C 8,3 C 0,0 UV-I 0,0 C 63 % 90 % 0 % 1007,5 hPa 0,0 l/m 2,4 km/h (1 Bft) 0 min 9,1 km/h (2 Bft)
12.11.2009 21:48 13,9 C 8,3 C 0,0 UV-I 0,0 C 63 % 90 % 0 % 1007,5 hPa 0,0 l/m 2,6 km/h (1 Bft) 0 min 5,3 km/h (1 Bft)
12.11.2009 21:50 13,9 C 8,2 C 0,0 UV-I 0,0 C 63 % 90 % 0 % 1007,5 hPa 0,0 l/m 2,6 km/h (1 Bft) 0 min 8,7 km/h (2 Bft)
12.11.2009 21:52 13,9 C 8,2 C 0,0 UV-I 0,0 C 63 % 90 % 0 % 1007,5 hPa 0,0 l/m 3,6 km/h (1 Bft) 0 min 8,7 km/h (2 Bft)
12.11.2009 21:56 13,9 C 8,1 C 0,0 UV-I 0,0 C 63 % 90 % 0 % 1007,6 hPa 0,0 l/m 4,3 km/h (1 Bft) 0 min 3,8 km/h (1 Bft)
12.11.2009 21:58 13,9 C 8,1 C 0,0 UV-I 0,0 C 63 % 90 % 0 % 1007,6 hPa 0,0 l/m 4,1 km/h (1 Bft) 0 min 7,5 km/h (2 Bft)
12.11.2009 22:00 13,9 C 8,1 C 0,0 UV-I 0,0 C 63 % 90 % 0 % 1007,6 hPa 0,0 l/m 4,1 km/h (1 Bft) 0 min 7,5 km/h (2 Bft)
12.11.2009 22:02 13,9 C 8,1 C 0,0 UV-I 0,0 C 63 % 91 % 0 % 1007,6 hPa 0,0 l/m 3,8 km/h (1 Bft) 0 min 14,9 km/h (3 Bft)
12.11.2009 22:04 13,9 C 8,1 C 0,0 UV-I 0,0 C 63 % 91 % 0 % 1007,6 hPa 0,0 l/m 4,3 km/h (1 Bft) 0 min 14,9 km/h (3 Bft)
12.11.2009 22:06 13,9 C 8,0 C 0,0 UV-I 0,0 C 63 % 91 % 0 % 1007,6 hPa 0,0 l/m 4,6 km/h (1 Bft) 0 min 9,1 km/h (2 Bft)
12.11.2009 22:08 13,9 C 8,0 C 0,0 UV-I 0,0 C 63 % 91 % 0 % 1007,6 hPa 0,0 l/m 5,3 km/h (1 Bft) 0 min 9,1 km/h (2 Bft)
12.11.2009 22:12 13,9 C 8,0 C 0,0 UV-I 0,0 C 63 % 91 % 0 % 1007,6 hPa 0,0 l/m 6,0 km/h (2 Bft) 0 min 6,7 km/h (2 Bft)
12.11.2009 22:14 14,0 C 8,0 C 0,0 UV-I 0,0 C 63 % 91 % 0 % 1007,4 hPa 0,0 l/m 5,8 km/h (2 Bft) 0 min 10,1 km/h (2 Bft)
12.11.2009 22:16 14,0 C 8,0 C 0,0 UV-I 0,0 C 63 % 91 % 0 % 1007,4 hPa 0,0 l/m 5,8 km/h (2 Bft) 0 min 10,1 km/h (2 Bft)
12.11.2009 22:18 14,0 C 8,0 C 0,0 UV-I 0,0 C 63 % 91 % 0 % 1007,4 hPa 0,0 l/m 5,8 km/h (2 Bft) 0 min 6,7 km/h (2 Bft)
12.11.2009 22:20 14,0 C 8,1 C 0,0 UV-I 0,0 C 63 % 91 % 0 % 1007,4 hPa 0,0 l/m 6,3 km/h (2 Bft) 0 min 7,5 km/h (2 Bft)
12.11.2009 22:22 14,0 C 8,1 C 0,0 UV-I 0,0 C 63 % 91 % 0 % 1007,4 hPa 0,0 l/m 6,3 km/h (2 Bft) 0 min 7,5 km/h (2 Bft)
12.11.2009 22:26 14,0 C 8,0 C 0,0 UV-I 0,0 C 63 % 91 % 0 % 1007,4 hPa 0,0 l/m 6,0 km/h (2 Bft) 0 min 7,7 km/h (2 Bft)
12.11.2009 22:28 14,0 C 8,1 C 0,0 UV-I 0,0 C 63 % 91 % 0 % 1007,4 hPa 0,0 l/m 6,0 km/h (2 Bft) 0 min 6,0 km/h (2 Bft)
12.11.2009 22:30 14,0 C 8,0 C 0,0 UV-I 0,0 C 63 % 91 % 0 % 1007,4 hPa 0,0 l/m 5,8 km/h (2 Bft) 0 min 6,0 km/h (2 Bft)
12.11.2009 22:32 14,0 C 8,0 C 0,0 UV-I 0,0 C 63 % 91 % 0 % 1007,4 hPa 0,0 l/m 5,8 km/h (2 Bft) 0 min 9,6 km/h (2 Bft)
12.11.2009 22:34 14,0 C 8,1 C 0,0 UV-I 0,0 C 63 % 91 % 0 % 1007,8 hPa 0,0 l/m 5,5 km/h (1 Bft) 0 min 11,1 km/h (2 Bft)
12.11.2009 22:36 13,8 C 8,1 C 0,0 UV-I 0,0 C 63 % 91 % 0 % 1007,8 hPa 0,0 l/m 5,8 km/h (2 Bft) 0 min 11,1 km/h (2 Bft)
12.11.2009 22:38 14,0 C 8,0 C 0,0 UV-I 0,0 C 63 % 91 % 0 % 1007,8 hPa 0,0 l/m 6,3 km/h (2 Bft) 0 min 10,6 km/h (2 Bft)
12.11.2009 22:40 13,8 C 8,0 C 0,0 UV-I 0,0 C 63 % 91 % 0 % 1007,8 hPa 0,0 l/m 6,5 km/h (2 Bft) 0 min 10,6 km/h (2 Bft)
12.11.2009 22:42 13,8 C 8,1 C 0,0 UV-I 0,0 C 63 % 91 % 0 % 1007,8 hPa 0,0 l/m 7,0 km/h (2 Bft) 0 min 7,5 km/h (2 Bft)
12.11.2009 22:44 13,8 C 8,1 C 0,0 UV-I 0,0 C 63 % 91 % 0 % 1007,8 hPa 0,0 l/m 7,0 km/h (2 Bft) 0 min 7,5 km/h (2 Bft)
12.11.2009 22:46 13,8 C 8,1 C 0,0 UV-I 0,0 C 63 % 91 % 0 % 1007,8 hPa 0,0 l/m 6,7 km/h (2 Bft) 0 min 7,2 km/h (2 Bft)
12.11.2009 22:48 13,9 C 8,1 C 0,0 UV-I 0,0 C 63 % 91 % 0 % 1007,8 hPa 0,0 l/m 5,8 km/h (2 Bft) 0 min 10,8 km/h (2 Bft)
12.11.2009 22:50 13,9 C 8,0 C 0,0 UV-I 0,0 C 63 % 91 % 0 % 1007,8 hPa 0,0 l/m 5,1 km/h (1 Bft) 0 min 10,8 km/h (2 Bft)
12.11.2009 22:52 13,9 C 8,0 C 0,0 UV-I 0,0 C 63 % 91 % 0 % 1007,8 hPa 0,0 l/m 5,5 km/h (1 Bft) 0 min 13,0 km/h (3 Bft)
12.11.2009 22:54 13,9 C 8,0 C 0,0 UV-I 0,0 C 63 % 91 % 0 % 1007,1 hPa 0,0 l/m 5,5 km/h (1 Bft) 0 min 13,0 km/h (3 Bft)
12.11.2009 22:56 13,9 C 8,0 C 0,0 UV-I 0,0 C 63 % 91 % 0 % 1007,1 hPa 0,0 l/m 5,3 km/h (1 Bft) 0 min 9,9 km/h (2 Bft)
12.11.2009 22:58 13,9 C 8,0 C 0,0 UV-I 0,0 C 63 % 91 % 0 % 1007,1 hPa 0,0 l/m 5,3 km/h (1 Bft) 0 min 6,5 km/h (2 Bft)
12.11.2009 23:00 13,9 C 7,9 C 0,0 UV-I 0,0 C 63 % 91 % 0 % 1007,1 hPa 0,0 l/m 5,5 km/h (1 Bft) 0 min 10,6 km/h (2 Bft)
12.11.2009 23:02 13,9 C 8,0 C 0,0 UV-I 0,0 C 63 % 91 % 0 % 1007,1 hPa 0,0 l/m 5,5 km/h (1 Bft) 0 min 11,3 km/h (2 Bft)
12.11.2009 23:06 13,9 C 7,9 C 0,0 UV-I 0,0 C 63 % 91 % 0 % 1007,1 hPa 0,0 l/m 5,3 km/h (1 Bft) 0 min 11,3 km/h (2 Bft)
12.11.2009 23:08 13,9 C 7,9 C 0,0 UV-I 0,0 C 63 % 91 % 0 % 1007,1 hPa 0,0 l/m 5,5 km/h (1 Bft) 0 min 8,9 km/h (2 Bft)
12.11.2009 23:10 13,9 C 7,9 C 0,0 UV-I 0,0 C 63 % 91 % 0 % 1007,1 hPa 0,0 l/m 6,0 km/h (2 Bft) 0 min 8,9 km/h (2 Bft)
12.11.2009 23:12 13,9 C 7,9 C 0,0 UV-I 0,0 C 63 % 91 % 0 % 1007,1 hPa 0,0 l/m 6,0 km/h (2 Bft) 0 min 7,2 km/h (2 Bft)
12.11.2009 23:14 13,9 C 7,9 C 0,0 UV-I 0,0 C 63 % 91 % 0 % 1007,4 hPa 0,0 l/m 5,3 km/h (1 Bft) 0 min 3,1 km/h (1 Bft)
12.11.2009 23:16 13,9 C 7,8 C 0,0 UV-I 0,0 C 63 % 91 % 0 % 1007,4 hPa 0,0 l/m 5,5 km/h (1 Bft) 0 min 6,7 km/h (2 Bft)
12.11.2009 23:18 13,9 C 7,9 C 0,0 UV-I 0,0 C 63 % 91 % 0 % 1007,4 hPa 0,0 l/m 5,5 km/h (1 Bft) 0 min 7,9 km/h (2 Bft)
12.11.2009 23:20 13,8 C 7,9 C 0,0 UV-I 0,0 C 63 % 91 % 0 % 1007,4 hPa 0,0 l/m 5,3 km/h (1 Bft) 0 min 5,5 km/h (1 Bft)
12.11.2009 23:24 13,8 C 7,9 C 0,0 UV-I 0,0 C 63 % 91 % 0 % 1007,4 hPa 0,0 l/m 5,5 km/h (1 Bft) 0 min 6,0 km/h (2 Bft)
12.11.2009 23:26 13,8 C 7,9 C 0,0 UV-I 0,0 C 63 % 91 % 0 % 1007,4 hPa 0,0 l/m 5,3 km/h (1 Bft) 0 min 5,3 km/h (1 Bft)
12.11.2009 23:28 13,8 C 7,9 C 0,0 UV-I 0,0 C 63 % 91 % 0 % 1007,4 hPa 0,0 l/m 5,5 km/h (1 Bft) 0 min 11,8 km/h (2 Bft)
12.11.2009 23:30 13,9 C 7,9 C 0,0 UV-I 0,0 C 63 % 91 % 0 % 1007,4 hPa 0,0 l/m 5,3 km/h (1 Bft) 0 min 11,8 km/h (2 Bft)
12.11.2009 23:32 13,8 C 7,9 C 0,0 UV-I 0,0 C 63 % 91 % 0 % 1007,4 hPa 0,0 l/m 4,8 km/h (1 Bft) 0 min 11,3 km/h (2 Bft)
12.11.2009 23:34 13,9 C 7,9 C 0,0 UV-I 0,0 C 63 % 91 % 0 % 1007,2 hPa 0,0 l/m 4,8 km/h (1 Bft) 0 min 11,3 km/h (2 Bft)
12.11.2009 23:36 13,8 C 7,9 C 0,0 UV-I 0,0 C 63 % 91 % 0 % 1007,2 hPa 0,0 l/m 5,1 km/h (1 Bft) 0 min 15,2 km/h (3 Bft)
12.11.2009 23:40 13,8 C 7,9 C 0,0 UV-I 0,0 C 63 % 91 % 0 % 1007,2 hPa 0,0 l/m 4,8 km/h (1 Bft) 0 min 15,2 km/h (3 Bft)
12.11.2009 23:42 13,8 C 7,9 C 0,0 UV-I 0,0 C 63 % 92 % 0 % 1007,2 hPa 0,0 l/m 5,1 km/h (1 Bft) 0 min 11,3 km/h (2 Bft)
12.11.2009 23:44 13,8 C 7,9 C 0,0 UV-I 0,0 C 63 % 91 % 0 % 1007,2 hPa 0,0 l/m 5,1 km/h (1 Bft) 0 min 11,3 km/h (2 Bft)
12.11.2009 23:46 13,8 C 7,9 C 0,0 UV-I 0,0 C 63 % 92 % 0 % 1007,2 hPa 0,0 l/m 4,8 km/h (1 Bft) 0 min 7,5 km/h (2 Bft)
12.11.2009 23:48 13,8 C 7,9 C 0,0 UV-I 0,0 C 63 % 92 % 0 % 1007,2 hPa 0,0 l/m 5,1 km/h (1 Bft) 0 min 7,5 km/h (2 Bft)
12.11.2009 23:50 13,8 C 7,9 C 0,0 UV-I 0,0 C 63 % 92 % 0 % 1007,2 hPa 0,0 l/m 5,1 km/h (1 Bft) 0 min 6,0 km/h (2 Bft)
12.11.2009 23:52 13,8 C 7,9 C 0,0 UV-I 0,0 C 63 % 92 % 0 % 1007,2 hPa 0,0 l/m 5,8 km/h (2 Bft) 0 min 6,0 km/h (2 Bft)
12.11.2009 23:56 13,8 C 7,9 C 0,0 UV-I 0,0 C 63 % 92 % 0 % 1007,0 hPa 0,0 l/m 5,1 km/h (1 Bft) 0 min 5,3 km/h (1 Bft)
12.11.2009 23:58 13,8 C 7,9 C 0,0 UV-I 0,0 C 63 % 92 % 0 % 1007,0 hPa 0,0 l/m 4,8 km/h (1 Bft) 0 min 11,1 km/h (2 Bft)
_ Min-Zeit 07:20 03:42 00:02 00:02 01:58 00:02 00:02 07:34 - 00:02 - 00:02
Minimum _ 12,6 C 3,2 C 0,0 UV-I 0,0 C 53 % 84 % 0 % 1003,8 hPa - 0,0 km/h (0 Bft) - 0,0 km/h (0 Bft)
_ Max-Zeit 15:04 15:02 13:34 13:42 17:10 11:06 13:40 20:16 07:34 08:50 13:38 08:44
Maximum _ 14,4 C 11,1 C 1,5 UV-I 3,7 C 66 % 96 % 100 % 1008,2 hPa 0,5 l/m 9,6 km/h
NO (2 Bft)
2 min 18,8 km/h
NO (3 Bft)
Durchschnitt _ 13,4 C 7,0 C 0,1 UV-I 0,1 C 60 % 91 % 4 % 1006,0 hPa #3,0 l/m 3,6 km/h (1 Bft) #10 min. 6,7 km/h (2 Bft)
© 2012 W. Hausmann